DLH742 RJBB-EDDM

Flight info

Callsign DLH742
Flight time 13h 29m
Altitude 34000
Route MAIKO OSRIX GUMID SOUJA Y324 STAGE Y38 SAPRA G585 SEL/N0496F360 Y697 AGAVO/K0919S1100 A591 IKEKA W4 HCH W200 DOVIV W55 PAMRU W34 LADIX B339 ASILA A575 UPREK W28 LAGEB W66 GOVSA/K0896S1160 W66 NUKTI B215 KABDO W119 GOBOK A343 RULAD/K0891F380 M610 ARBOL Z621 GENDI N147 AGERA/K0896F400 N147 OTBOR/N0487F400 A480 TIMGA B476 METKA L88 RASAM N199 EDATA M11 MATAL DCT REBLO UR317 TBN UM11 CRM UL746 ODERO DCT LUGEB DCT MOPUG DCT SUNIS DCT AMADI Q113 NAPSA NAPSA1B
Aircraft A359/H-SADE2E3GHIJ1J2J3J4J5M1P2RWXYZ/LB1D1

Departure

Time 2026-05-06 21:29
Airport Kansai International Airport (RJBB)

Arrival

Time 2026-05-07 10:58
Airport Munich Airport (EDDM)
Time Latitude Longitude Altitude Speed Heading
2026-05-06 20:47 34.43156 135.23932 2 ft 0 kts 134°
2026-05-06 21:12 34.43161 135.23926 28 ft 4 kts 117°
2026-05-06 21:12 34.43171 135.23911 27 ft 4 kts 172°
2026-05-06 21:12 34.43189 135.23908 27 ft 4 kts 161°
2026-05-06 21:12 34.43214 135.23900 28 ft 4 kts 183°
2026-05-06 21:13 34.43236 135.23910 28 ft 2 kts 232°
2026-05-06 21:13 34.43227 135.23894 28 ft 5 kts 232°
2026-05-06 21:13 34.43205 135.23860 29 ft 5 kts 232°
2026-05-06 21:13 34.43184 135.23826 29 ft 5 kts 232°
2026-05-06 21:14 34.43162 135.23792 29 ft 5 kts 232°
2026-05-06 21:14 34.43141 135.23758 29 ft 5 kts 232°
2026-05-06 21:14 34.43137 135.23751 29 ft 0 kts 232°
2026-05-06 21:19 34.43131 135.23743 29 ft 6 kts 232°
2026-05-06 21:19 34.43076 135.23657 29 ft 18 kts 233°
2026-05-06 21:20 34.43028 135.23551 29 ft 13 kts 259°
2026-05-06 21:20 34.43018 135.23475 29 ft 14 kts 251°
2026-05-06 21:20 34.42984 135.23339 29 ft 13 kts 293°
2026-05-06 21:20 34.43052 135.23265 29 ft 15 kts 322°
2026-05-06 21:21 34.43147 135.23173 29 ft 20 kts 321°
2026-05-06 21:21 34.43257 135.23065 29 ft 20 kts 320°
2026-05-06 21:21 34.43367 135.22954 29 ft 20 kts 320°
2026-05-06 21:21 34.43475 135.22846 29 ft 20 kts 322°
2026-05-06 21:22 34.43587 135.22739 28 ft 20 kts 321°
2026-05-06 21:22 34.43697 135.22630 29 ft 20 kts 321°
2026-05-06 21:22 34.43809 135.22525 29 ft 20 kts 322°
2026-05-06 21:22 34.43895 135.22516 30 ft 13 kts 38°
2026-05-06 21:23 34.43957 135.22605 30 ft 14 kts 50°
2026-05-06 21:23 34.44027 135.22709 30 ft 19 kts 50°
2026-05-06 21:23 34.44053 135.22746 30 ft 4 kts 52°
2026-05-06 21:23 34.44100 135.22824 30 ft 16 kts 68°
2026-05-06 21:24 34.44039 135.22891 29 ft 15 kts 210°
2026-05-06 21:24 34.43952 135.22772 29 ft 24 kts 231°
2026-05-06 21:24 34.43828 135.22585 29 ft 29 kts 231°
2026-05-06 21:24 34.43708 135.22400 29 ft 27 kts 232°
2026-05-06 21:25 34.43593 135.22222 29 ft 26 kts 236°
2026-05-06 21:25 34.43554 135.22019 29 ft 24 kts 253°
2026-05-06 21:25 34.43462 135.21858 30 ft 23 kts 231°
2026-05-06 21:25 34.43360 135.21710 30 ft 25 kts 231°
2026-05-06 21:26 34.43244 135.21538 30 ft 26 kts 231°
2026-05-06 21:26 34.43132 135.21367 29 ft 26 kts 231°
2026-05-06 21:26 34.43018 135.21200 29 ft 25 kts 231°
2026-05-06 21:26 34.42944 135.21091 29 ft 25 kts 230°
2026-05-06 21:27 34.42834 135.20927 29 ft 25 kts 231°
2026-05-06 21:27 34.42752 135.20792 29 ft 12 kts 256°
2026-05-06 21:27 34.42794 135.20705 29 ft 14 kts 317°
2026-05-06 21:27 34.42886 135.20663 28 ft 16 kts 27°
2026-05-06 21:28 34.42959 135.20764 28 ft 20 kts 51°
2026-05-06 21:28 34.43141 135.21036 29 ft 70 kts 51°
2026-05-06 21:28 34.43583 135.21695 31 ft 130 kts 51°
2026-05-06 21:28 34.44265 135.22712 36 ft 180 kts 51°
2026-05-06 21:29 34.45022 135.23920 675 ft 177 kts 56°
2026-05-06 21:29 34.45901 135.24904 1332 ft 175 kts 10°
2026-05-06 21:29 34.46986 135.24403 1556 ft 182 kts 305°
2026-05-06 21:29 34.47601 135.23022 1696 ft 198 kts 298°
2026-05-06 21:30 34.48510 135.21646 1888 ft 215 kts 313°
2026-05-06 21:30 34.49693 135.20408 2089 ft 235 kts 320°
2026-05-06 21:30 34.51046 135.19225 2381 ft 249 kts 323°
2026-05-06 21:30 34.52531 135.18041 2880 ft 255 kts 324°
2026-05-06 21:31 34.54022 135.16899 3426 ft 258 kts 325°
2026-05-06 21:31 34.55556 135.15747 3970 ft 261 kts 325°
2026-05-06 21:31 34.57113 135.14590 4525 ft 264 kts 324°
2026-05-06 21:31 34.58681 135.13417 5078 ft 266 kts 323°
2026-05-06 21:32 34.60060 135.11938 5647 ft 264 kts 302°
2026-05-06 21:32 34.60914 135.07737 6728 ft 263 kts 267°
2026-05-06 21:32 34.60928 135.05502 7279 ft 265 kts 267°
2026-05-06 21:33 34.60945 135.03257 7872 ft 267 kts 267°
2026-05-06 21:33 34.60973 135.00989 8439 ft 270 kts 268°
2026-05-06 21:33 34.61010 134.98702 9003 ft 273 kts 268°
2026-05-06 21:33 34.61094 134.96385 9558 ft 276 kts 270°
2026-05-06 21:34 34.61223 134.94050 10118 ft 279 kts 271°
2026-05-06 21:34 34.61377 134.91643 10391 ft 293 kts 271°
2026-05-06 21:34 34.61545 134.89126 10605 ft 306 kts 271°
2026-05-06 21:34 34.61719 134.86494 10835 ft 320 kts 271°
2026-05-06 21:35 34.61900 134.83744 11070 ft 332 kts 271°
2026-05-06 21:35 34.62089 134.80895 11293 ft 345 kts 272°
2026-05-06 21:35 34.62198 134.77951 11562 ft 354 kts 266°
2026-05-06 21:35 34.62117 134.74943 11941 ft 359 kts 265°
2026-05-06 21:36 34.61967 134.71900 12379 ft 362 kts 263°
2026-05-06 21:36 34.61774 134.68835 12840 ft 365 kts 263°
2026-05-06 21:36 34.61560 134.65763 13287 ft 368 kts 263°
2026-05-06 21:36 34.61337 134.62655 13726 ft 370 kts 262°
2026-05-06 21:37 34.61110 134.59522 14091 ft 374 kts 263°
2026-05-06 21:37 34.60887 134.56400 14417 ft 378 kts 263°
2026-05-06 21:37 34.60663 134.53217 14802 ft 379 kts 263°
2026-05-06 21:37 34.60441 134.50018 15178 ft 381 kts 263°
2026-05-06 21:38 34.60217 134.46804 15553 ft 383 kts 263°
2026-05-06 21:38 34.59992 134.43570 15909 ft 385 kts 263°
2026-05-06 21:38 34.59764 134.40319 16260 ft 388 kts 263°
2026-05-06 21:38 34.59533 134.37046 16601 ft 390 kts 263°
2026-05-06 21:39 34.59301 134.33760 16954 ft 392 kts 263°
2026-05-06 21:39 34.59067 134.30458 17324 ft 394 kts 263°
2026-05-06 21:39 34.58830 134.27133 17678 ft 396 kts 263°
2026-05-06 21:39 34.58590 134.23786 18012 ft 398 kts 263°
2026-05-06 21:40 34.58349 134.20433 18376 ft 400 kts 263°
2026-05-06 21:40 34.58106 134.17060 18695 ft 402 kts 263°
2026-05-06 21:40 34.57861 134.13681 19010 ft 403 kts 263°
2026-05-06 21:40 34.57615 134.10288 19321 ft 405 kts 263°
2026-05-06 21:41 34.57405 134.06868 19563 ft 408 kts 267°
2026-05-06 21:41 34.57527 134.03416 19873 ft 410 kts 275°
2026-05-06 21:41 34.57950 133.99997 20279 ft 410 kts 278°
2026-05-06 21:41 34.58477 133.96601 20634 ft 411 kts 279°
2026-05-06 21:42 34.59065 133.93203 20945 ft 413 kts 280°
2026-05-06 21:42 34.59682 133.89795 21269 ft 415 kts 280°
2026-05-06 21:42 34.60309 133.86367 21582 ft 416 kts 280°
2026-05-06 21:42 34.60933 133.82933 21912 ft 418 kts 280°
2026-05-06 21:43 34.61624 133.79502 22234 ft 420 kts 284°
2026-05-06 21:43 34.62653 133.76172 22532 ft 422 kts 292°
2026-05-06 21:43 34.64098 133.73058 22825 ft 426 kts 301°
2026-05-06 21:43 34.65975 133.70258 23142 ft 430 kts 310°
2026-05-06 21:44 34.68100 133.67699 23477 ft 432 kts 313°
2026-05-06 21:44 34.70323 133.65225 23757 ft 434 kts 314°
2026-05-06 21:44 34.72595 133.62791 24005 ft 437 kts 315°
2026-05-06 21:44 34.74888 133.60364 24283 ft 438 kts 315°
2026-05-06 21:45 34.77189 133.57923 24537 ft 440 kts 315°
2026-05-06 21:45 34.79494 133.55459 24800 ft 442 kts 314°
2026-05-06 21:45 34.81801 133.52974 25071 ft 445 kts 314°
2026-05-06 21:45 34.84117 133.50464 25353 ft 447 kts 314°
2026-05-06 21:46 34.86441 133.47938 25640 ft 449 kts 314°
2026-05-06 21:46 34.88773 133.45399 25952 ft 450 kts 314°
2026-05-06 21:46 34.91106 133.42853 26225 ft 453 kts 314°
2026-05-06 21:46 34.93460 133.40283 26517 ft 454 kts 313°
2026-05-06 21:47 34.95821 133.37703 26781 ft 457 kts 313°
2026-05-06 21:47 34.98192 133.35111 27051 ft 459 kts 313°
2026-05-06 21:47 35.00572 133.32507 27317 ft 461 kts 313°
2026-05-06 21:47 35.02965 133.29888 27586 ft 463 kts 313°
2026-05-06 21:48 35.05370 133.27254 27834 ft 465 kts 313°
2026-05-06 21:48 35.07779 133.24615 28095 ft 467 kts 313°
2026-05-06 21:48 35.10202 133.21957 28365 ft 469 kts 313°
2026-05-06 21:48 35.12634 133.19286 28641 ft 471 kts 313°
2026-05-06 21:49 35.15045 133.16635 28867 ft 473 kts 313°
2026-05-06 21:49 35.17499 133.13935 29120 ft 475 kts 313°
2026-05-06 21:49 35.19964 133.11223 29335 ft 477 kts 313°
2026-05-06 21:49 35.22435 133.08502 29568 ft 479 kts 312°
2026-05-06 21:50 35.24910 133.05777 29848 ft 480 kts 312°
2026-05-06 21:50 35.27402 133.03029 30045 ft 482 kts 312°
2026-05-06 21:50 35.29892 133.00279 30259 ft 483 kts 312°
2026-05-06 21:50 35.32389 132.97521 30500 ft 483 kts 312°
2026-05-06 21:51 35.34879 132.94767 30709 ft 484 kts 312°
2026-05-06 21:51 35.37367 132.92011 30902 ft 484 kts 312°
2026-05-06 21:51 35.39879 132.89226 31087 ft 485 kts 312°
2026-05-06 21:51 35.42387 132.86445 31269 ft 486 kts 312°
2026-05-06 21:52 35.44886 132.83672 31527 ft 484 kts 312°
2026-05-06 21:52 35.47379 132.80904 31822 ft 482 kts 312°
2026-05-06 21:52 35.49861 132.78144 32078 ft 481 kts 311°
2026-05-06 21:52 35.52329 132.75377 32346 ft 478 kts 310°
2026-05-06 21:53 35.54562 132.72396 32650 ft 471 kts 303°
2026-05-06 21:53 35.56420 132.69117 32888 ft 466 kts 295°
2026-05-06 21:53 35.57844 132.65583 33068 ft 461 kts 287°
2026-05-06 21:53 35.58804 132.61844 33264 ft 457 kts 278°
2026-05-06 21:54 35.59426 132.58030 33494 ft 454 kts 276°
2026-05-06 21:54 35.59948 132.54210 33757 ft 452 kts 275°
2026-05-06 21:54 35.60418 132.50446 33920 ft 451 kts 275°
2026-05-06 21:54 35.60882 132.46623 33950 ft 454 kts 275°
2026-05-06 21:55 35.61831 132.38930 33957 ft 456 kts 275°
2026-05-06 21:55 35.62821 132.31250 33942 ft 455 kts 276°
2026-05-06 21:56 35.63951 132.23605 33993 ft 454 kts 277°
2026-05-06 21:56 35.65181 132.15921 34034 ft 455 kts 277°
2026-05-06 21:57 35.66468 132.08348 34029 ft 455 kts 277°
2026-05-06 21:57 35.67791 132.00678 34025 ft 456 kts 278°
2026-05-06 21:58 35.69090 131.93117 34020 ft 456 kts 277°
2026-05-06 21:58 35.70393 131.85481 34024 ft 456 kts 277°
2026-05-06 21:59 35.71689 131.77841 34023 ft 456 kts 277°
2026-05-06 21:59 35.72979 131.70211 34021 ft 455 kts 277°
2026-05-06 22:00 35.74263 131.62575 34020 ft 455 kts 277°
2026-05-06 22:00 35.75541 131.54947 34029 ft 455 kts 277°
2026-05-06 22:01 35.76812 131.47334 34010 ft 453 kts 277°
2026-05-06 22:01 35.78076 131.39734 34016 ft 453 kts 277°
2026-05-06 22:02 35.79336 131.32119 34017 ft 453 kts 277°
2026-05-06 22:02 35.80579 131.24573 34011 ft 453 kts 277°
2026-05-06 22:03 35.81826 131.16974 34011 ft 453 kts 277°
2026-05-06 22:03 35.83070 131.09364 34012 ft 453 kts 277°
2026-05-06 22:04 35.84306 131.01771 34008 ft 452 kts 277°
2026-05-06 22:04 35.85539 130.94168 34008 ft 452 kts 277°
2026-05-06 22:05 35.86767 130.86564 34011 ft 452 kts 276°
2026-05-06 22:05 35.87989 130.78958 33995 ft 452 kts 276°
2026-05-06 22:06 35.89208 130.71342 33991 ft 452 kts 276°
2026-05-06 22:06 35.90422 130.63728 34006 ft 452 kts 276°
2026-05-06 22:07 35.91630 130.56118 34004 ft 452 kts 276°
2026-05-06 22:07 35.92832 130.48503 33997 ft 452 kts 277°
2026-05-06 22:08 35.94033 130.40878 34000 ft 453 kts 276°
2026-05-06 22:08 35.95229 130.33238 34000 ft 453 kts 276°
2026-05-06 22:09 35.96421 130.25602 33982 ft 453 kts 276°
2026-05-06 22:09 35.97608 130.17957 33987 ft 454 kts 276°
2026-05-06 22:10 35.98793 130.10298 33989 ft 454 kts 276°
2026-05-06 22:10 35.99972 130.02640 34003 ft 454 kts 276°
2026-05-06 22:11 36.01142 129.95022 33984 ft 449 kts 276°
2026-05-06 22:11 36.02298 129.87445 33982 ft 448 kts 276°
2026-05-06 22:12 36.03447 129.79872 33998 ft 448 kts 276°
2026-05-06 22:12 36.04589 129.72318 33985 ft 448 kts 276°
2026-05-06 22:13 36.05730 129.64726 33982 ft 450 kts 276°
2026-05-06 22:13 36.06862 129.57178 33994 ft 450 kts 276°
2026-05-06 22:14 36.07994 129.49607 33982 ft 446 kts 276°
2026-05-06 22:14 36.09116 129.42060 33988 ft 446 kts 276°
2026-05-06 22:15 36.10229 129.34527 34012 ft 446 kts 276°
2026-05-06 22:15 36.11336 129.27008 33997 ft 444 kts 276°
2026-05-06 22:16 36.12258 129.20718 33995 ft 443 kts 276°
2026-05-06 22:16 36.13352 129.13223 33994 ft 443 kts 276°
2026-05-06 22:17 36.14442 129.05727 33998 ft 441 kts 276°
2026-05-06 22:17 36.15523 128.98268 34000 ft 441 kts 276°
2026-05-06 22:18 36.16589 128.90847 33999 ft 440 kts 276°
2026-05-06 22:18 36.17655 128.83395 34002 ft 439 kts 275°
2026-05-06 22:19 36.18718 128.75961 34002 ft 438 kts 275°
2026-05-06 22:19 36.19781 128.68476 34003 ft 438 kts 275°
2026-05-06 22:20 36.20831 128.61046 34004 ft 439 kts 275°
2026-05-06 22:20 36.21872 128.53646 34004 ft 439 kts 275°
2026-05-06 22:21 36.22917 128.46197 34001 ft 439 kts 275°
2026-05-06 22:21 36.23956 128.38747 34003 ft 439 kts 275°
2026-05-06 22:22 36.24990 128.31303 33997 ft 439 kts 275°
2026-05-06 22:22 36.26019 128.23856 33996 ft 439 kts 275°
2026-05-06 22:23 36.27623 128.16519 33999 ft 445 kts 287°
2026-05-06 22:23 36.30375 128.09610 34005 ft 447 kts 292°
2026-05-06 22:24 36.33461 128.02926 33999 ft 448 kts 294°
2026-05-06 22:24 36.36608 127.96259 34003 ft 447 kts 294°
2026-05-06 22:25 36.39714 127.89594 34001 ft 446 kts 293°
2026-05-06 22:25 36.42736 127.83041 34002 ft 445 kts 293°
2026-05-06 22:26 36.45804 127.76362 34007 ft 445 kts 293°
2026-05-06 22:26 36.48869 127.69677 34005 ft 445 kts 293°
2026-05-06 22:27 36.51932 127.62991 33997 ft 445 kts 293°
2026-05-06 22:27 36.54988 127.56304 33996 ft 445 kts 293°
2026-05-06 22:28 36.58039 127.49611 34014 ft 445 kts 293°
2026-05-06 22:28 36.61090 127.42911 34019 ft 445 kts 292°
2026-05-06 22:29 36.64113 127.36257 34016 ft 445 kts 292°
2026-05-06 22:29 36.67154 127.29547 34011 ft 445 kts 292°
2026-05-06 22:30 36.70189 127.22841 34022 ft 444 kts 292°
2026-05-06 22:30 36.73219 127.16128 33976 ft 444 kts 292°
2026-05-06 22:31 36.76246 127.09410 33971 ft 444 kts 292°
2026-05-06 22:31 36.79265 127.02697 33967 ft 444 kts 292°
2026-05-06 22:32 36.82281 126.95975 33968 ft 443 kts 292°
2026-05-06 22:32 36.85290 126.89262 33965 ft 443 kts 292°
2026-05-06 22:33 36.88290 126.82547 33967 ft 443 kts 292°
2026-05-06 22:33 36.91284 126.75832 33970 ft 442 kts 292°
2026-05-06 22:34 36.94275 126.69113 33970 ft 441 kts 292°
2026-05-06 22:34 36.97249 126.62421 33972 ft 440 kts 292°
2026-05-06 22:35 37.00221 126.55715 33976 ft 440 kts 291°
2026-05-06 22:35 37.03183 126.49017 33991 ft 440 kts 291°
2026-05-06 22:36 37.06141 126.42318 33973 ft 439 kts 291°
2026-05-06 22:36 37.09090 126.35623 33979 ft 439 kts 291°
2026-05-06 22:37 37.12036 126.28921 33982 ft 439 kts 291°
2026-05-06 22:37 37.14976 126.22221 33991 ft 438 kts 291°
2026-05-06 22:38 37.17891 126.15574 33985 ft 434 kts 291°
2026-05-06 22:38 37.20788 126.08940 33983 ft 433 kts 291°
2026-05-06 22:39 37.23683 126.02295 33978 ft 434 kts 291°
2026-05-06 22:39 37.26569 125.95661 33979 ft 434 kts 291°
2026-05-06 22:40 37.29457 125.89011 33973 ft 433 kts 291°
2026-05-06 22:40 37.32338 125.82365 33972 ft 433 kts 291°
2026-05-06 22:41 37.36561 125.72596 33970 ft 432 kts 291°
2026-05-06 22:42 37.39422 125.65969 33965 ft 430 kts 291°
2026-05-06 22:42 37.42264 125.59360 33966 ft 430 kts 291°
2026-05-06 22:43 37.45088 125.52779 33957 ft 430 kts 291°
2026-05-06 22:43 37.47944 125.46116 33957 ft 429 kts 291°
2026-05-06 22:44 37.50770 125.39509 33952 ft 428 kts 291°
2026-05-06 22:44 37.53590 125.32901 33946 ft 428 kts 290°
2026-05-06 22:45 37.56406 125.26288 33944 ft 428 kts 290°
2026-05-06 22:45 37.59216 125.19680 33943 ft 426 kts 290°
2026-05-06 22:46 37.62009 125.13097 33935 ft 425 kts 290°
2026-05-06 22:46 37.64774 125.06560 33940 ft 425 kts 290°
2026-05-06 22:47 37.67555 124.99975 33931 ft 425 kts 290°
2026-05-06 22:47 37.70328 124.93401 33919 ft 423 kts 290°
2026-05-06 22:48 37.73104 124.86806 33925 ft 422 kts 290°
2026-05-06 22:48 37.75832 124.80301 33927 ft 422 kts 290°
2026-05-06 22:49 37.78575 124.73753 33933 ft 422 kts 290°
2026-05-06 22:49 37.81310 124.67214 33921 ft 420 kts 290°
2026-05-06 22:50 37.84032 124.60690 33919 ft 419 kts 290°
2026-05-06 22:50 37.86748 124.54164 33919 ft 419 kts 290°
2026-05-06 22:51 37.89461 124.47632 33930 ft 419 kts 289°
2026-05-06 22:51 37.92164 124.41121 33918 ft 416 kts 289°
2026-05-06 22:52 37.94845 124.34644 33917 ft 415 kts 289°
2026-05-06 22:52 37.97518 124.28163 33917 ft 415 kts 289°
2026-05-06 22:53 38.00188 124.21680 33919 ft 415 kts 289°
2026-05-06 22:53 38.02854 124.15202 33919 ft 413 kts 289°
2026-05-06 22:54 38.05501 124.08753 33913 ft 412 kts 289°
2026-05-06 22:54 38.08140 124.02304 33914 ft 412 kts 289°
2026-05-06 22:55 38.10781 123.95841 33915 ft 412 kts 289°
2026-05-06 22:55 38.13414 123.89387 33917 ft 411 kts 289°
2026-05-06 22:56 38.16037 123.82944 33915 ft 410 kts 289°
2026-05-06 22:56 38.18650 123.76506 33911 ft 410 kts 289°
2026-05-06 22:57 38.21265 123.70053 33908 ft 410 kts 289°
2026-05-06 22:57 38.23876 123.63603 33909 ft 410 kts 288°
2026-05-06 22:58 38.26465 123.57191 33931 ft 410 kts 288°
2026-05-06 22:58 38.29060 123.50766 33909 ft 406 kts 288°
2026-05-06 22:59 38.31626 123.44381 33907 ft 405 kts 288°
2026-05-06 22:59 38.34185 123.37989 33907 ft 404 kts 288°
2026-05-06 23:00 38.36740 123.31604 33914 ft 405 kts 288°
2026-05-06 23:00 38.39294 123.25212 33923 ft 405 kts 288°
2026-05-06 23:01 38.41845 123.18815 33919 ft 405 kts 288°
2026-05-06 23:01 38.43980 123.13449 33929 ft 404 kts 288°
2026-05-06 23:02 38.46515 123.07072 33920 ft 403 kts 288°
2026-05-06 23:02 38.49043 123.00694 33923 ft 403 kts 287°
2026-05-06 23:03 38.51568 122.94307 33925 ft 403 kts 287°
2026-05-06 23:03 38.54073 122.87960 33946 ft 403 kts 287°
2026-05-06 23:04 38.56588 122.81578 33925 ft 402 kts 287°
2026-05-06 23:04 38.59096 122.75196 33925 ft 402 kts 287°
2026-05-06 23:05 38.61616 122.68770 33932 ft 402 kts 287°
2026-05-06 23:05 38.64102 122.62420 33927 ft 402 kts 287°
2026-05-06 23:06 38.66599 122.56031 33934 ft 402 kts 287°
2026-05-06 23:06 38.69094 122.49627 33940 ft 402 kts 287°
2026-05-06 23:07 38.71587 122.43218 33938 ft 402 kts 287°
2026-05-06 23:07 38.74076 122.36807 33944 ft 402 kts 287°
2026-05-06 23:08 38.76559 122.30400 33942 ft 401 kts 286°
2026-05-06 23:08 38.79030 122.24012 33941 ft 400 kts 286°
2026-05-06 23:09 38.81495 122.17619 33950 ft 400 kts 286°
2026-05-06 23:09 38.83955 122.11226 33949 ft 400 kts 286°
2026-05-06 23:10 38.86413 122.04825 33957 ft 399 kts 286°
2026-05-06 23:10 38.88855 121.98467 33951 ft 397 kts 286°
2026-05-06 23:11 38.91285 121.92110 33951 ft 396 kts 286°
2026-05-06 23:11 38.93710 121.85751 33956 ft 396 kts 286°
2026-05-06 23:12 38.96131 121.79392 33984 ft 396 kts 286°
2026-05-06 23:12 38.98548 121.73041 33963 ft 394 kts 286°
2026-05-06 23:13 39.00951 121.66708 33967 ft 394 kts 286°
2026-05-06 23:13 39.03346 121.60375 33966 ft 394 kts 286°
2026-05-06 23:14 39.05738 121.54040 33965 ft 393 kts 286°
2026-05-06 23:14 39.08125 121.47709 33965 ft 392 kts 285°
2026-05-06 23:15 39.10499 121.41404 33967 ft 391 kts 285°
2026-05-06 23:15 39.12863 121.35101 33972 ft 391 kts 285°
2026-05-06 23:16 39.15226 121.28788 33979 ft 391 kts 285°
2026-05-06 23:16 39.17586 121.22474 33990 ft 391 kts 285°
2026-05-06 23:17 39.19936 121.16173 33993 ft 390 kts 285°
2026-05-06 23:17 39.22279 121.09877 33993 ft 390 kts 285°
2026-05-06 23:18 39.24610 121.03600 34015 ft 389 kts 285°
2026-05-06 23:18 39.26941 120.97319 33999 ft 388 kts 285°
2026-05-06 23:19 39.29260 120.91049 34010 ft 386 kts 285°
2026-05-06 23:19 39.31564 120.84808 34007 ft 385 kts 285°
2026-05-06 23:20 39.33874 120.78528 34004 ft 385 kts 285°
2026-05-06 23:20 39.36167 120.72285 34009 ft 385 kts 285°
2026-05-06 23:21 39.38457 120.66038 34009 ft 384 kts 284°
2026-05-06 23:21 39.40730 120.59829 34014 ft 384 kts 284°
2026-05-06 23:22 39.43011 120.53581 34019 ft 384 kts 284°
2026-05-06 23:22 39.45290 120.47328 34020 ft 384 kts 284°
2026-05-06 23:23 39.47566 120.41068 34020 ft 384 kts 284°
2026-05-06 23:23 39.49836 120.34816 34018 ft 383 kts 284°
2026-05-06 23:24 39.52099 120.28569 34017 ft 383 kts 284°
2026-05-06 23:24 39.54351 120.22331 34023 ft 383 kts 284°
2026-05-06 23:25 39.56606 120.16075 34026 ft 383 kts 284°
2026-05-06 23:25 39.58856 120.09820 34040 ft 383 kts 284°
2026-05-06 23:26 39.61102 120.03564 34031 ft 383 kts 284°
2026-05-06 23:26 39.63347 119.97298 34028 ft 383 kts 284°
2026-05-06 23:27 39.65587 119.91030 34035 ft 383 kts 284°
2026-05-06 23:27 39.67823 119.84761 34034 ft 383 kts 284°
2026-05-06 23:28 39.70055 119.78491 34039 ft 382 kts 284°
2026-05-06 23:28 39.72281 119.72225 34036 ft 382 kts 284°
2026-05-06 23:29 39.74504 119.65952 34043 ft 382 kts 284°
2026-05-06 23:29 39.76723 119.59676 34043 ft 382 kts 284°
2026-05-06 23:30 39.78938 119.53399 34082 ft 382 kts 284°
2026-05-06 23:30 39.81149 119.47120 34052 ft 382 kts 284°
2026-05-06 23:31 39.83353 119.40847 34049 ft 382 kts 284°
2026-05-06 23:31 39.85555 119.34563 34056 ft 382 kts 284°
2026-05-06 23:32 39.87754 119.28276 34058 ft 382 kts 283°
2026-05-06 23:32 39.89951 119.21979 34063 ft 382 kts 283°
2026-05-06 23:33 39.92150 119.15654 34063 ft 384 kts 284°
2026-05-06 23:33 39.94357 119.09306 34070 ft 385 kts 284°
2026-05-06 23:34 39.96562 119.02952 34068 ft 384 kts 284°
2026-05-06 23:34 39.98761 118.96600 34076 ft 384 kts 283°
2026-05-06 23:35 40.00944 118.90267 34077 ft 388 kts 284°
2026-05-06 23:35 40.03159 118.83832 34077 ft 389 kts 284°
2026-05-06 23:36 40.05390 118.77349 34085 ft 389 kts 284°
2026-05-06 23:36 40.07588 118.70946 34084 ft 389 kts 284°
2026-05-06 23:37 40.09792 118.64501 34095 ft 390 kts 284°
2026-05-06 23:37 40.12009 118.57988 34089 ft 394 kts 284°
2026-05-06 23:38 40.14239 118.51436 34093 ft 395 kts 284°
2026-05-06 23:38 40.16471 118.44877 34091 ft 395 kts 284°
2026-05-06 23:39 40.18702 118.38292 34110 ft 398 kts 285°
2026-05-06 23:39 40.20958 118.31597 34105 ft 406 kts 286°
2026-05-06 23:40 40.23146 118.25121 34107 ft 408 kts 286°
2026-05-06 23:40 40.25438 118.18331 34103 ft 407 kts 286°
2026-05-06 23:41 40.27717 118.11553 34104 ft 407 kts 286°
2026-05-06 23:41 40.29985 118.04777 34184 ft 405 kts 287°
2026-05-06 23:41 40.31117 118.01398 34421 ft 403 kts 287°
2026-05-06 23:42 40.32237 117.98044 34557 ft 403 kts 287°
2026-05-06 23:42 40.34484 117.91285 34756 ft 405 kts 287°
2026-05-06 23:42 40.35608 117.87901 34890 ft 405 kts 287°
2026-05-06 23:43 40.36735 117.84508 34991 ft 406 kts 287°
2026-05-06 23:43 40.37859 117.81121 35093 ft 406 kts 287°
2026-05-06 23:43 40.38987 117.77723 35231 ft 406 kts 287°
2026-05-06 23:44 40.41236 117.70916 35447 ft 407 kts 287°
2026-05-06 23:44 40.42357 117.67515 35595 ft 406 kts 287°
2026-05-06 23:44 40.43481 117.64099 35628 ft 408 kts 287°
2026-05-06 23:45 40.45733 117.57264 35901 ft 408 kts 287°
2026-05-06 23:45 40.47603 117.51580 36036 ft 409 kts 287°
2026-05-06 23:45 40.49097 117.47029 36163 ft 410 kts 287°
2026-05-06 23:46 40.49860 117.44699 36146 ft 412 kts 287°
2026-05-06 23:46 40.52120 117.37777 36140 ft 413 kts 287°
2026-05-06 23:47 40.54381 117.30851 36154 ft 412 kts 287°
2026-05-06 23:47 40.56640 117.23916 36151 ft 412 kts 287°
2026-05-06 23:48 40.58890 117.16986 36172 ft 412 kts 287°
2026-05-06 23:48 40.61134 117.10055 36159 ft 412 kts 287°
2026-05-06 23:49 40.63357 117.03167 36159 ft 411 kts 287°
2026-05-06 23:49 40.65603 116.96191 36162 ft 411 kts 287°
2026-05-06 23:50 40.67820 116.89291 36163 ft 412 kts 287°
2026-05-06 23:50 40.71179 116.78808 36162 ft 412 kts 287°
2026-05-06 23:51 40.73403 116.71839 36177 ft 413 kts 286°
2026-05-06 23:51 40.75602 116.64904 36175 ft 412 kts 286°
2026-05-06 23:52 40.77824 116.57923 36180 ft 413 kts 287°
2026-05-06 23:52 40.80042 116.50933 36194 ft 415 kts 287°
2026-05-06 23:53 40.82272 116.43877 36195 ft 417 kts 286°
2026-05-06 23:53 40.84505 116.36789 36196 ft 418 kts 286°
2026-05-06 23:54 40.86730 116.29702 36202 ft 418 kts 286°
2026-05-06 23:54 40.88956 116.22610 36211 ft 418 kts 287°
2026-05-06 23:55 40.91188 116.15473 36213 ft 421 kts 286°
2026-05-06 23:55 40.93424 116.08306 36228 ft 421 kts 286°
2026-05-06 23:56 40.95653 116.01146 36241 ft 421 kts 286°
2026-05-06 23:56 40.97881 115.93964 36229 ft 421 kts 287°
2026-05-06 23:57 40.99959 115.87249 36254 ft 425 kts 287°
2026-05-06 23:57 41.02231 115.79879 36250 ft 427 kts 287°
2026-05-06 23:58 41.04473 115.72598 36267 ft 427 kts 287°
2026-05-06 23:58 41.06708 115.65321 36266 ft 426 kts 287°
2026-05-06 23:59 41.08939 115.58025 36279 ft 429 kts 287°
2026-05-06 23:59 41.11175 115.50696 36288 ft 433 kts 287°
2026-05-07 00:00 41.13433 115.43282 36293 ft 434 kts 287°
2026-05-07 00:00 41.15685 115.35874 36301 ft 433 kts 287°
2026-05-07 00:01 41.17931 115.28451 36297 ft 434 kts 288°
2026-05-07 00:01 41.20178 115.21002 36301 ft 435 kts 287°
2026-05-07 00:02 41.22425 115.13536 36305 ft 435 kts 287°
2026-05-07 00:02 41.24666 115.06072 36310 ft 435 kts 287°
2026-05-07 00:03 41.26901 114.98600 36318 ft 436 kts 288°
2026-05-07 00:03 41.29143 114.91089 36315 ft 437 kts 288°
2026-05-07 00:04 41.31379 114.83575 36312 ft 437 kts 288°
2026-05-07 00:04 41.33611 114.76053 36317 ft 437 kts 288°
2026-05-07 00:05 41.35840 114.68521 36317 ft 437 kts 288°
2026-05-07 00:05 41.38061 114.60994 36324 ft 437 kts 288°
2026-05-07 00:06 41.40278 114.53459 36326 ft 437 kts 288°
2026-05-07 00:06 41.42493 114.45908 36330 ft 437 kts 288°
2026-05-07 00:07 41.44699 114.38362 36340 ft 437 kts 288°
2026-05-07 00:07 41.46904 114.30801 36336 ft 438 kts 288°
2026-05-07 00:08 41.49107 114.23225 36342 ft 438 kts 288°
2026-05-07 00:08 41.51231 114.15901 36339 ft 438 kts 288°
2026-05-07 00:09 41.53427 114.08306 36344 ft 438 kts 288°
2026-05-07 00:09 41.55616 114.00710 36344 ft 438 kts 288°
2026-05-07 00:10 41.57801 113.93109 36343 ft 439 kts 288°
2026-05-07 00:10 41.59979 113.85504 36343 ft 438 kts 288°
2026-05-07 00:11 41.62155 113.77889 36346 ft 439 kts 288°
2026-05-07 00:11 41.64323 113.70275 36348 ft 439 kts 288°
2026-05-07 00:12 41.66492 113.62642 36346 ft 439 kts 288°
2026-05-07 00:12 41.68656 113.54997 36345 ft 439 kts 288°
2026-05-07 00:13 41.70800 113.47402 36349 ft 439 kts 288°
2026-05-07 00:13 41.72953 113.39753 36349 ft 439 kts 288°
2026-05-07 00:14 41.75103 113.32090 36350 ft 440 kts 288°
2026-05-07 00:14 41.77249 113.24418 36349 ft 440 kts 288°
2026-05-07 00:15 41.79388 113.16745 36349 ft 440 kts 288°
2026-05-07 00:15 41.81524 113.09062 36345 ft 440 kts 288°
2026-05-07 00:16 41.83658 113.01364 36349 ft 441 kts 288°
2026-05-07 00:16 41.85791 112.93646 36347 ft 441 kts 288°
2026-05-07 00:17 41.87917 112.85926 36347 ft 441 kts 288°
2026-05-07 00:17 41.90038 112.78204 36340 ft 441 kts 288°
2026-05-07 00:18 41.92153 112.70478 36359 ft 441 kts 289°
2026-05-07 00:18 41.94265 112.62716 36345 ft 443 kts 288°
2026-05-07 00:19 41.95980 112.54772 36346 ft 443 kts 283°
2026-05-07 00:19 41.97484 112.46730 36346 ft 444 kts 283°
2026-05-07 00:20 41.99038 112.38698 36347 ft 444 kts 284°
2026-05-07 00:20 42.00642 112.30678 36352 ft 444 kts 284°
2026-05-07 00:21 42.02258 112.22663 36352 ft 444 kts 284°
2026-05-07 00:21 42.03869 112.14639 36360 ft 444 kts 284°
2026-05-07 00:22 42.05470 112.06613 36358 ft 445 kts 284°
2026-05-07 00:22 42.07070 111.98560 36361 ft 445 kts 284°
2026-05-07 00:23 42.08664 111.90505 36362 ft 445 kts 284°
2026-05-07 00:23 42.10252 111.82446 36364 ft 445 kts 284°
2026-05-07 00:24 42.11834 111.74377 36362 ft 446 kts 284°
2026-05-07 00:24 42.13413 111.66303 36361 ft 446 kts 284°
2026-05-07 00:25 42.14986 111.58217 36361 ft 446 kts 284°
2026-05-07 00:25 42.16555 111.50126 36364 ft 446 kts 284°
2026-05-07 00:26 42.18117 111.42039 36366 ft 446 kts 284°
2026-05-07 00:26 42.19592 111.33918 36365 ft 447 kts 280°
2026-05-07 00:27 42.19832 111.25564 36358 ft 449 kts 266°
2026-05-07 00:27 42.19063 111.17228 36361 ft 453 kts 264°
2026-05-07 00:28 42.18119 111.08769 36359 ft 454 kts 263°
2026-05-07 00:28 42.17180 111.00388 36354 ft 455 kts 264°
2026-05-07 00:29 42.16253 110.91951 36358 ft 455 kts 264°
2026-05-07 00:30 42.14400 110.75071 36351 ft 456 kts 264°
2026-05-07 00:30 42.13464 110.66622 36352 ft 456 kts 264°
2026-05-07 00:31 42.12520 110.58170 36352 ft 455 kts 264°
2026-05-07 00:31 42.11727 110.51120 36348 ft 454 kts 264°
2026-05-07 00:32 42.10775 110.42709 36350 ft 455 kts 264°
2026-05-07 00:32 42.09821 110.34327 36353 ft 456 kts 264°
2026-05-07 00:33 42.08854 110.25897 36351 ft 456 kts 264°
2026-05-07 00:33 42.07874 110.17411 36352 ft 456 kts 264°
2026-05-07 00:34 42.06893 110.08976 36352 ft 456 kts 264°
2026-05-07 00:34 42.05906 110.00533 36354 ft 457 kts 264°
2026-05-07 00:35 42.04920 109.92160 36347 ft 455 kts 264°
2026-05-07 00:35 42.03926 109.83775 36352 ft 454 kts 264°
2026-05-07 00:36 42.02925 109.75394 36350 ft 454 kts 264°
2026-05-07 00:36 42.01918 109.67000 36354 ft 455 kts 264°
2026-05-07 00:37 42.00904 109.58609 36349 ft 455 kts 264°
2026-05-07 00:37 41.99884 109.50216 36350 ft 455 kts 264°
2026-05-07 00:38 41.98857 109.41830 36346 ft 455 kts 264°
2026-05-07 00:38 41.97826 109.33458 36348 ft 454 kts 264°
2026-05-07 00:39 41.96792 109.25105 36346 ft 452 kts 264°
2026-05-07 00:39 41.95756 109.16791 36344 ft 451 kts 264°
2026-05-07 00:40 41.94714 109.08482 36338 ft 451 kts 264°
2026-05-07 00:40 41.93666 109.00175 36346 ft 451 kts 264°
2026-05-07 00:41 41.92613 108.91875 36343 ft 451 kts 264°
2026-05-07 00:41 41.91553 108.83573 36339 ft 451 kts 264°
2026-05-07 00:42 41.90487 108.75281 36330 ft 451 kts 264°
2026-05-07 00:42 41.89416 108.67000 36343 ft 450 kts 264°
2026-05-07 00:43 41.88342 108.58730 36341 ft 449 kts 264°
2026-05-07 00:43 41.87266 108.50502 36343 ft 448 kts 264°
2026-05-07 00:44 41.86185 108.42284 36313 ft 448 kts 264°
2026-05-07 00:44 41.85098 108.34067 36343 ft 446 kts 264°
2026-05-07 00:45 41.84008 108.25869 36336 ft 446 kts 264°
2026-05-07 00:45 41.82913 108.17684 36342 ft 446 kts 264°
2026-05-07 00:46 41.81811 108.09489 36339 ft 446 kts 264°
2026-05-07 00:46 41.80704 108.01305 36331 ft 446 kts 263°
2026-05-07 00:47 41.79590 107.93118 36325 ft 446 kts 263°
2026-05-07 00:47 41.78472 107.84945 36322 ft 446 kts 263°
2026-05-07 00:48 41.77354 107.76815 36320 ft 446 kts 263°
2026-05-07 00:48 41.76223 107.68644 36315 ft 446 kts 263°
2026-05-07 00:49 41.75080 107.60428 36314 ft 446 kts 263°
2026-05-07 00:49 41.73948 107.52326 36312 ft 446 kts 263°
2026-05-07 00:50 41.72801 107.44168 36305 ft 446 kts 263°
2026-05-07 00:50 41.71642 107.35965 36303 ft 446 kts 263°
2026-05-07 00:51 41.70491 107.27866 36291 ft 445 kts 263°
2026-05-07 00:51 41.69330 107.19745 36307 ft 444 kts 263°
2026-05-07 00:52 41.68165 107.11630 36293 ft 444 kts 263°
2026-05-07 00:52 41.66995 107.03520 36264 ft 444 kts 263°
2026-05-07 00:53 41.65819 106.95411 36292 ft 444 kts 263°
2026-05-07 00:53 41.64635 106.87301 36282 ft 444 kts 263°
2026-05-07 00:54 41.63447 106.79196 36285 ft 444 kts 263°
2026-05-07 00:54 41.62252 106.71090 36279 ft 444 kts 263°
2026-05-07 00:55 41.61053 106.62994 36286 ft 444 kts 263°
2026-05-07 00:55 41.59847 106.54895 36275 ft 445 kts 262°
2026-05-07 00:56 41.58635 106.46798 36276 ft 445 kts 262°
2026-05-07 00:56 41.57417 106.38701 36270 ft 445 kts 262°
2026-05-07 00:57 41.56194 106.30607 36269 ft 445 kts 262°
2026-05-07 00:57 41.54962 106.22501 36275 ft 445 kts 262°
2026-05-07 00:58 41.53734 106.14460 36274 ft 445 kts 262°
2026-05-07 00:58 41.51980 106.06489 36270 ft 450 kts 253°
2026-05-07 00:59 41.48508 105.94773 36266 ft 454 kts 251°
2026-05-07 01:00 41.46132 105.87001 36288 ft 452 kts 251°
2026-05-07 01:00 41.43768 105.79242 36269 ft 452 kts 252°
2026-05-07 01:01 41.41409 105.71483 36277 ft 452 kts 251°
2026-05-07 01:01 41.39047 105.63731 36246 ft 452 kts 251°
2026-05-07 01:02 41.36670 105.55984 36268 ft 452 kts 251°
2026-05-07 01:02 41.34268 105.48261 36255 ft 451 kts 251°
2026-05-07 01:03 41.31865 105.40561 36265 ft 450 kts 251°
2026-05-07 01:03 41.29465 105.32879 36260 ft 449 kts 251°
2026-05-07 01:04 41.27065 105.25206 36264 ft 450 kts 250°
2026-05-07 01:04 41.24656 105.17531 36256 ft 450 kts 250°
2026-05-07 01:05 41.22242 105.09864 36256 ft 450 kts 250°
2026-05-07 01:05 41.19821 105.02200 36235 ft 449 kts 250°
2026-05-07 01:06 41.17422 104.94626 36248 ft 447 kts 250°
2026-05-07 01:06 41.15010 104.87029 36246 ft 447 kts 250°
2026-05-07 01:07 41.12594 104.79436 36247 ft 447 kts 249°
2026-05-07 01:07 41.10169 104.71839 36246 ft 447 kts 249°
2026-05-07 01:08 41.07783 104.64234 36248 ft 447 kts 250°
2026-05-07 01:08 41.05475 104.56595 36223 ft 446 kts 250°
2026-05-07 01:09 41.03173 104.48994 36238 ft 444 kts 250°
2026-05-07 01:09 41.00874 104.41416 36233 ft 442 kts 252°
2026-05-07 01:10 40.99473 104.33562 36238 ft 437 kts 265°
2026-05-07 01:10 40.99766 104.25593 36239 ft 434 kts 280°
2026-05-07 01:11 41.01573 104.17990 36233 ft 432 kts 288°
2026-05-07 01:11 41.03724 104.10556 36235 ft 432 kts 289°
2026-05-07 01:12 41.05899 104.03131 36231 ft 432 kts 288°
2026-05-07 01:12 41.08050 103.95683 36227 ft 432 kts 288°
2026-05-07 01:13 41.10178 103.88237 36227 ft 432 kts 288°
2026-05-07 01:13 41.12301 103.80775 36229 ft 433 kts 288°
2026-05-07 01:14 41.14410 103.73338 36224 ft 434 kts 288°
2026-05-07 01:14 41.16530 103.65847 36226 ft 433 kts 288°
2026-05-07 01:15 41.18644 103.58352 36228 ft 434 kts 288°
2026-05-07 01:15 41.20765 103.50817 36223 ft 436 kts 288°
2026-05-07 01:16 41.22887 103.43256 36212 ft 438 kts 288°
2026-05-07 01:16 41.25009 103.35671 36216 ft 438 kts 288°
2026-05-07 01:17 41.27127 103.28074 36209 ft 438 kts 288°
2026-05-07 01:17 41.29238 103.20482 36208 ft 438 kts 288°
2026-05-07 01:18 41.31346 103.12875 36194 ft 438 kts 287°
2026-05-07 01:18 41.33096 103.06544 36205 ft 440 kts 287°
2026-05-07 01:19 41.35204 102.98901 36200 ft 440 kts 287°
2026-05-07 01:19 41.37366 102.91270 36196 ft 441 kts 288°
2026-05-07 01:20 41.39581 102.83664 36201 ft 440 kts 288°
2026-05-07 01:20 41.41785 102.76053 36210 ft 440 kts 288°
2026-05-07 01:21 41.43979 102.68421 36211 ft 442 kts 288°
2026-05-07 01:21 41.46181 102.60770 36197 ft 442 kts 288°
2026-05-07 01:22 41.48380 102.53108 36190 ft 442 kts 288°
2026-05-07 01:22 41.50572 102.45446 36198 ft 442 kts 288°
2026-05-07 01:23 41.52760 102.37778 36196 ft 443 kts 288°
2026-05-07 01:23 41.54954 102.30066 36198 ft 446 kts 288°
2026-05-07 01:24 41.57148 102.22330 36196 ft 446 kts 288°
2026-05-07 01:24 41.59341 102.14573 36201 ft 446 kts 288°
2026-05-07 01:25 41.61528 102.06813 36196 ft 446 kts 288°
2026-05-07 01:25 41.63709 101.99053 36189 ft 447 kts 287°
2026-05-07 01:26 41.65895 101.91249 36198 ft 448 kts 287°
2026-05-07 01:26 41.68075 101.83443 36185 ft 448 kts 287°
2026-05-07 01:27 41.70251 101.75627 36192 ft 448 kts 287°
2026-05-07 01:27 41.72422 101.67805 36186 ft 448 kts 287°
2026-05-07 01:28 41.74592 101.59963 36193 ft 451 kts 287°
2026-05-07 01:28 41.76766 101.52081 36190 ft 451 kts 287°
2026-05-07 01:29 41.78932 101.44201 36187 ft 451 kts 287°
2026-05-07 01:29 41.81096 101.36307 36190 ft 451 kts 287°
2026-05-07 01:30 41.83254 101.28408 36181 ft 451 kts 287°
2026-05-07 01:30 41.84789 101.20282 36185 ft 449 kts 274°
2026-05-07 01:31 41.85173 101.11956 36187 ft 452 kts 270°
2026-05-07 01:31 41.85363 101.03535 36183 ft 453 kts 270°
2026-05-07 01:32 41.85530 100.95086 36174 ft 453 kts 270°
2026-05-07 01:32 41.85711 100.86654 36172 ft 453 kts 270°
2026-05-07 01:33 41.85898 100.78207 36175 ft 453 kts 270°
2026-05-07 01:33 41.86080 100.69767 36174 ft 453 kts 270°
2026-05-07 01:34 41.86255 100.61338 36174 ft 453 kts 270°
2026-05-07 01:34 41.86424 100.52885 36170 ft 453 kts 270°
2026-05-07 01:35 41.86587 100.44408 36171 ft 455 kts 270°
2026-05-07 01:35 41.86744 100.35922 36163 ft 455 kts 269°
2026-05-07 01:36 41.86894 100.27438 36161 ft 455 kts 269°
2026-05-07 01:36 41.87038 100.18951 36161 ft 455 kts 269°
2026-05-07 01:37 41.87177 100.10449 36160 ft 457 kts 269°
2026-05-07 01:37 41.87309 100.01927 36163 ft 457 kts 269°
2026-05-07 01:38 41.87435 99.93404 36157 ft 457 kts 269°
2026-05-07 01:38 41.87555 99.84875 36160 ft 457 kts 269°
2026-05-07 01:39 41.87669 99.76341 36155 ft 459 kts 269°
2026-05-07 01:39 41.87776 99.67776 36156 ft 459 kts 269°
2026-05-07 01:40 41.87877 99.59265 36158 ft 459 kts 269°
2026-05-07 01:40 41.87972 99.50696 36157 ft 459 kts 269°
2026-05-07 01:41 41.88061 99.42122 36156 ft 460 kts 269°
2026-05-07 01:41 41.88143 99.33538 36159 ft 460 kts 269°
2026-05-07 01:42 41.88219 99.24947 36158 ft 460 kts 269°
2026-05-07 01:42 41.88288 99.16360 36161 ft 460 kts 269°
2026-05-07 01:43 41.88352 99.07773 36148 ft 460 kts 269°
2026-05-07 01:43 41.88409 98.99169 36156 ft 461 kts 268°
2026-05-07 01:44 41.88459 98.90576 36157 ft 461 kts 268°
2026-05-07 01:44 41.88503 98.81964 36157 ft 461 kts 268°
2026-05-07 01:45 41.88541 98.73362 36157 ft 461 kts 268°
2026-05-07 01:45 41.88573 98.64747 36157 ft 463 kts 268°
2026-05-07 01:46 41.88598 98.56092 36158 ft 464 kts 268°
2026-05-07 01:46 41.88616 98.47435 36162 ft 464 kts 268°
2026-05-07 01:47 41.88629 98.38803 36163 ft 459 kts 268°
2026-05-07 01:47 41.88635 98.30286 36167 ft 456 kts 268°
2026-05-07 01:48 41.88633 98.21769 36173 ft 456 kts 268°
2026-05-07 01:48 41.88625 98.13258 36175 ft 456 kts 268°
2026-05-07 01:49 41.88612 98.04743 36168 ft 456 kts 268°
2026-05-07 01:49 41.88592 97.96279 36182 ft 456 kts 268°
2026-05-07 01:50 41.88567 97.87735 36179 ft 459 kts 268°
2026-05-07 01:50 41.88534 97.79158 36185 ft 460 kts 268°
2026-05-07 01:51 41.88495 97.70587 36178 ft 460 kts 268°
2026-05-07 01:51 41.88450 97.62008 36189 ft 460 kts 267°
2026-05-07 01:52 41.88398 97.53426 36184 ft 461 kts 267°
2026-05-07 01:52 41.88340 97.44818 36188 ft 461 kts 267°
2026-05-07 01:53 41.88275 97.36218 36182 ft 461 kts 267°
2026-05-07 01:53 41.88204 97.27612 36184 ft 461 kts 267°
2026-05-07 01:54 41.88126 97.19009 36186 ft 461 kts 267°
2026-05-07 01:54 41.88042 97.10405 36194 ft 461 kts 267°
2026-05-07 01:55 41.87952 97.01802 36194 ft 461 kts 267°
2026-05-07 01:55 41.87855 96.93198 36198 ft 461 kts 267°
2026-05-07 01:56 41.87752 96.84605 36198 ft 461 kts 267°
2026-05-07 01:56 41.87642 96.75985 36192 ft 463 kts 267°
2026-05-07 01:57 41.87525 96.67342 36192 ft 464 kts 267°
2026-05-07 01:57 41.87402 96.58692 36192 ft 464 kts 266°
2026-05-07 01:58 41.87273 96.50039 36193 ft 464 kts 266°
2026-05-07 01:58 41.87137 96.41389 36190 ft 465 kts 266°
2026-05-07 01:59 41.86993 96.32711 36200 ft 466 kts 266°
2026-05-07 01:59 41.86844 96.24030 36197 ft 466 kts 266°
2026-05-07 02:00 41.86758 96.15341 36198 ft 466 kts 268°
2026-05-07 02:00 41.86733 96.06654 36201 ft 466 kts 268°
2026-05-07 02:01 41.86695 95.97948 36197 ft 468 kts 267°
2026-05-07 02:01 41.86637 95.89215 36195 ft 468 kts 267°
2026-05-07 02:02 41.86567 95.80488 36203 ft 468 kts 267°
2026-05-07 02:02 41.86490 95.71756 36183 ft 468 kts 267°
2026-05-07 02:03 41.86407 95.63013 36179 ft 469 kts 267°
2026-05-07 02:03 41.86333 95.55739 36179 ft 470 kts 267°
2026-05-07 02:04 41.86237 95.46972 36175 ft 470 kts 267°
2026-05-07 02:04 41.86136 95.38218 36166 ft 470 kts 267°
2026-05-07 02:05 41.86086 95.29502 36150 ft 465 kts 270°
2026-05-07 02:05 41.87265 95.20952 36157 ft 470 kts 287°
2026-05-07 02:06 41.90355 95.13180 36151 ft 478 kts 304°
2026-05-07 02:06 41.94638 95.06326 36146 ft 478 kts 308°
2026-05-07 02:07 41.99057 94.99654 36139 ft 477 kts 308°
2026-05-07 02:07 42.05664 94.89630 36136 ft 478 kts 308°
2026-05-07 02:08 42.10056 94.82886 36134 ft 479 kts 308°
2026-05-07 02:08 42.14439 94.76127 36133 ft 479 kts 308°
2026-05-07 02:09 42.18792 94.69402 36112 ft 479 kts 308°
2026-05-07 02:09 42.23166 94.62634 36111 ft 479 kts 308°
2026-05-07 02:10 42.27544 94.55840 36108 ft 479 kts 308°
2026-05-07 02:10 42.31918 94.49038 36125 ft 481 kts 308°
2026-05-07 02:11 42.36299 94.42210 36129 ft 480 kts 308°
2026-05-07 02:11 42.40666 94.35388 36128 ft 480 kts 308°
2026-05-07 02:12 42.45033 94.28551 36109 ft 480 kts 308°
2026-05-07 02:12 42.49393 94.21708 36108 ft 480 kts 308°
2026-05-07 02:13 42.53749 94.14856 36126 ft 480 kts 308°
2026-05-07 02:13 42.58099 94.07996 36120 ft 479 kts 308°
2026-05-07 02:14 42.62407 94.01190 36121 ft 478 kts 308°
2026-05-07 02:14 42.66733 93.94337 36118 ft 478 kts 308°
2026-05-07 02:15 42.71061 93.87465 36121 ft 478 kts 308°
2026-05-07 02:15 42.75380 93.80589 36122 ft 478 kts 308°
2026-05-07 02:16 42.79695 93.73704 36113 ft 478 kts 308°
2026-05-07 02:16 42.83669 93.66505 36128 ft 474 kts 297°
2026-05-07 02:17 42.86260 93.58255 36120 ft 475 kts 288°
2026-05-07 02:17 42.88415 93.49713 36119 ft 477 kts 287°
2026-05-07 02:18 42.90511 93.41126 36132 ft 477 kts 287°
2026-05-07 02:18 42.92618 93.32544 36124 ft 477 kts 287°
2026-05-07 02:19 42.94738 93.23956 36122 ft 477 kts 287°
2026-05-07 02:19 42.96851 93.15379 36122 ft 477 kts 287°
2026-05-07 02:20 42.98963 93.06786 36138 ft 477 kts 287°
2026-05-07 02:20 43.01050 92.98254 36126 ft 477 kts 287°
2026-05-07 02:21 43.03146 92.89653 36125 ft 477 kts 287°
2026-05-07 02:21 43.05234 92.81055 36123 ft 477 kts 287°
2026-05-07 02:22 43.07314 92.72454 36121 ft 477 kts 287°
2026-05-07 02:22 43.09389 92.63841 36124 ft 477 kts 287°
2026-05-07 02:23 43.11454 92.55234 36112 ft 476 kts 287°
2026-05-07 02:23 43.13516 92.46614 36119 ft 476 kts 286°
2026-05-07 02:24 43.15568 92.38000 36114 ft 476 kts 286°
2026-05-07 02:24 43.17614 92.29377 36123 ft 476 kts 286°
2026-05-07 02:25 43.19653 92.20750 36121 ft 475 kts 286°
2026-05-07 02:25 43.21681 92.12135 36114 ft 476 kts 286°
2026-05-07 02:26 43.23707 92.03499 36108 ft 475 kts 286°
2026-05-07 02:26 43.25727 91.94852 36131 ft 476 kts 286°
2026-05-07 02:27 43.27740 91.86204 36124 ft 476 kts 286°
2026-05-07 02:27 43.29750 91.77537 36117 ft 477 kts 286°
2026-05-07 02:28 43.31754 91.68856 36102 ft 477 kts 286°
2026-05-07 02:28 43.33752 91.60170 36119 ft 477 kts 286°
2026-05-07 02:29 43.35744 91.51475 36128 ft 477 kts 285°
2026-05-07 02:29 43.37729 91.42776 36127 ft 477 kts 285°
2026-05-07 02:30 43.39708 91.34074 36132 ft 476 kts 285°
2026-05-07 02:30 43.41677 91.25373 36132 ft 477 kts 285°
2026-05-07 02:31 43.43635 91.16660 36128 ft 476 kts 285°
2026-05-07 02:31 43.45586 91.07949 36144 ft 476 kts 285°
2026-05-07 02:32 43.47529 90.99239 36152 ft 475 kts 285°
2026-05-07 02:32 43.49450 90.90600 36157 ft 476 kts 285°
2026-05-07 02:33 43.51379 90.81888 36161 ft 475 kts 285°
2026-05-07 02:33 43.53299 90.73181 36165 ft 476 kts 285°
2026-05-07 02:34 43.55215 90.64457 36166 ft 475 kts 285°
2026-05-07 02:34 43.57122 90.55738 36175 ft 476 kts 285°
2026-05-07 02:35 43.59026 90.46999 36175 ft 475 kts 285°
2026-05-07 02:35 43.60921 90.38261 36182 ft 475 kts 285°
2026-05-07 02:36 43.62810 90.29514 36181 ft 475 kts 285°
2026-05-07 02:36 43.64691 90.20775 36182 ft 476 kts 285°
2026-05-07 02:37 43.66569 90.12008 36180 ft 476 kts 284°
2026-05-07 02:37 43.68461 90.03237 36164 ft 477 kts 285°
2026-05-07 02:38 43.70460 89.94504 36159 ft 476 kts 286°
2026-05-07 02:38 43.72469 89.85789 36160 ft 476 kts 286°
2026-05-07 02:39 43.74453 89.77071 36159 ft 476 kts 285°
2026-05-07 02:39 43.76422 89.68337 36141 ft 476 kts 285°
2026-05-07 02:40 43.78381 89.59595 36139 ft 476 kts 285°
2026-05-07 02:40 43.80335 89.50848 36144 ft 476 kts 285°
2026-05-07 02:41 43.82333 89.42124 36146 ft 476 kts 286°
2026-05-07 02:41 43.84365 89.33411 36132 ft 475 kts 286°
2026-05-07 02:42 43.86381 89.24706 36129 ft 474 kts 286°
2026-05-07 02:42 43.88380 89.16000 36145 ft 474 kts 286°
2026-05-07 02:43 43.90369 89.07286 36163 ft 474 kts 286°
2026-05-07 02:43 43.92350 88.98571 36137 ft 474 kts 285°
2026-05-07 02:44 43.94326 88.89850 36153 ft 474 kts 285°
2026-05-07 02:44 43.96278 88.81195 36152 ft 473 kts 285°
2026-05-07 02:45 43.98372 88.72532 36147 ft 473 kts 288°
2026-05-07 02:45 44.00613 88.63935 36145 ft 473 kts 288°
2026-05-07 02:46 44.02834 88.55336 36163 ft 473 kts 288°
2026-05-07 02:46 44.05016 88.46722 36164 ft 473 kts 288°
2026-05-07 02:47 44.07180 88.38099 36149 ft 473 kts 287°
2026-05-07 02:47 44.09341 88.29455 36145 ft 473 kts 287°
2026-05-07 02:48 44.11492 88.20822 36147 ft 473 kts 287°
2026-05-07 02:48 44.13629 88.12165 36127 ft 473 kts 286°
2026-05-07 02:49 44.14705 88.03201 36123 ft 471 kts 269°
2026-05-07 02:49 44.13678 87.94227 36114 ft 472 kts 249°
2026-05-07 02:50 44.10549 87.86204 36109 ft 475 kts 233°
2026-05-07 02:50 44.06562 87.78822 36115 ft 479 kts 231°
2026-05-07 02:51 44.02475 87.71493 36122 ft 480 kts 231°
2026-05-07 02:51 43.99095 87.65380 36122 ft 480 kts 231°
2026-05-07 02:52 43.95044 87.57998 36129 ft 480 kts 231°
2026-05-07 02:52 43.91000 87.50620 36129 ft 480 kts 231°
2026-05-07 02:53 43.87230 87.42975 36130 ft 480 kts 237°
2026-05-07 02:53 43.83729 87.35105 36128 ft 480 kts 237°
2026-05-07 02:54 43.80190 87.27265 36124 ft 480 kts 236°
2026-05-07 02:54 43.76589 87.19486 36128 ft 480 kts 236°
2026-05-07 02:55 43.72957 87.11724 36120 ft 481 kts 236°
2026-05-07 02:55 43.69316 87.03976 36147 ft 481 kts 236°
2026-05-07 02:56 43.65672 86.96244 36143 ft 480 kts 236°
2026-05-07 02:56 43.62022 86.88514 36172 ft 480 kts 236°
2026-05-07 02:57 43.58381 86.80789 36162 ft 480 kts 237°
2026-05-07 02:57 43.55709 86.72373 36185 ft 481 kts 254°
2026-05-07 02:58 43.55099 86.63246 36205 ft 480 kts 274°
2026-05-07 02:58 43.55967 86.54152 36207 ft 477 kts 277°
2026-05-07 02:59 43.57033 86.45132 36227 ft 477 kts 278°
2026-05-07 02:59 43.58040 86.36093 36226 ft 476 kts 277°
2026-05-07 03:00 43.58995 86.27069 36251 ft 476 kts 276°
2026-05-07 03:00 43.59938 86.18037 36265 ft 475 kts 276°
2026-05-07 03:01 43.60871 86.09072 36236 ft 476 kts 276°
2026-05-07 03:01 43.61831 86.00040 36238 ft 476 kts 277°
2026-05-07 03:02 43.62823 85.91007 36239 ft 476 kts 277°
2026-05-07 03:02 43.63802 85.81965 36250 ft 476 kts 276°
2026-05-07 03:03 43.64570 85.72906 36253 ft 476 kts 274°
2026-05-07 03:03 43.65225 85.63813 36253 ft 476 kts 274°
2026-05-07 03:04 43.65900 85.54720 36259 ft 476 kts 274°
2026-05-07 03:04 43.66596 85.45638 36238 ft 475 kts 274°
2026-05-07 03:05 43.67293 85.36557 36250 ft 476 kts 274°
2026-05-07 03:05 43.67981 85.27472 36249 ft 475 kts 274°
2026-05-07 03:06 43.68577 85.18374 36265 ft 475 kts 269°
2026-05-07 03:06 43.67738 85.09387 36260 ft 473 kts 251°
2026-05-07 03:07 43.64904 85.01213 36252 ft 475 kts 237°
2026-05-07 03:07 43.61317 84.93492 36281 ft 479 kts 235°
2026-05-07 03:08 43.57640 84.85817 36285 ft 479 kts 235°
2026-05-07 03:08 43.53994 84.78137 36278 ft 479 kts 236°
2026-05-07 03:09 43.50359 84.70432 36274 ft 479 kts 236°
2026-05-07 03:09 43.46724 84.62723 36271 ft 481 kts 236°
2026-05-07 03:10 43.43072 84.55004 36263 ft 481 kts 236°
2026-05-07 03:10 43.39414 84.47295 36252 ft 481 kts 236°
2026-05-07 03:11 43.36295 84.39173 36249 ft 482 kts 250°
2026-05-07 03:11 43.35090 84.30179 36238 ft 480 kts 268°
2026-05-07 03:12 43.35624 84.21062 36228 ft 477 kts 275°
2026-05-07 03:12 43.36465 84.12028 36222 ft 476 kts 276°
2026-05-07 03:13 43.37316 84.02997 36215 ft 476 kts 276°
2026-05-07 03:13 43.38130 83.93966 36213 ft 476 kts 275°
2026-05-07 03:14 43.38919 83.84925 36200 ft 476 kts 275°
2026-05-07 03:15 43.40080 83.71421 36190 ft 476 kts 275°
2026-05-07 03:15 43.40851 83.62371 36189 ft 476 kts 275°
2026-05-07 03:16 43.41614 83.53325 36159 ft 476 kts 275°
2026-05-07 03:16 43.42370 83.44282 36156 ft 476 kts 275°
2026-05-07 03:17 43.43108 83.35239 36161 ft 476 kts 274°
2026-05-07 03:17 43.43497 83.26157 36149 ft 475 kts 271°
2026-05-07 03:18 43.43731 83.17063 36144 ft 476 kts 271°
2026-05-07 03:18 43.44004 83.07976 36135 ft 475 kts 271°
2026-05-07 03:19 43.44312 82.98903 36128 ft 475 kts 271°
2026-05-07 03:19 43.44626 82.89828 36128 ft 475 kts 271°
2026-05-07 03:20 43.44933 82.80756 36117 ft 475 kts 271°
2026-05-07 03:20 43.45230 82.71682 36116 ft 475 kts 271°
2026-05-07 03:21 43.45518 82.62603 36114 ft 475 kts 271°
2026-05-07 03:21 43.45800 82.53525 36113 ft 475 kts 271°
2026-05-07 03:22 43.46075 82.44453 36109 ft 475 kts 271°
2026-05-07 03:22 43.46342 82.35375 36112 ft 474 kts 271°
2026-05-07 03:23 43.46602 82.26318 36110 ft 473 kts 270°
2026-05-07 03:23 43.46854 82.17257 36108 ft 474 kts 271°
2026-05-07 03:24 43.47100 82.08213 36115 ft 473 kts 270°
2026-05-07 03:24 43.47339 81.99146 36107 ft 474 kts 270°
2026-05-07 03:25 43.47570 81.90094 36110 ft 473 kts 270°
2026-05-07 03:25 43.47793 81.81029 36115 ft 473 kts 270°
2026-05-07 03:26 43.48008 81.72040 36109 ft 473 kts 270°
2026-05-07 03:26 43.48215 81.62965 36119 ft 473 kts 270°
2026-05-07 03:27 43.48402 81.53929 36118 ft 472 kts 270°
2026-05-07 03:27 43.48581 81.44883 36116 ft 473 kts 270°
2026-05-07 03:28 43.48755 81.35841 36118 ft 472 kts 270°
2026-05-07 03:28 43.48922 81.26792 36117 ft 472 kts 270°
2026-05-07 03:29 43.49081 81.17768 36117 ft 471 kts 270°
2026-05-07 03:29 43.49235 81.08711 36114 ft 473 kts 270°
2026-05-07 03:30 43.49382 80.99662 36110 ft 473 kts 270°
2026-05-07 03:30 43.49521 80.90595 36109 ft 473 kts 270°
2026-05-07 03:31 43.49653 80.81522 36111 ft 475 kts 270°
2026-05-07 03:31 43.49779 80.72427 36113 ft 475 kts 270°
2026-05-07 03:32 43.50060 80.63326 36113 ft 475 kts 272°
2026-05-07 03:32 43.50462 80.54251 36110 ft 475 kts 272°
2026-05-07 03:33 43.50837 80.45163 36111 ft 476 kts 272°
2026-05-07 03:33 43.51179 80.36055 36097 ft 476 kts 272°
2026-05-07 03:34 43.51503 80.26956 36093 ft 476 kts 272°
2026-05-07 03:34 43.51820 80.17842 36094 ft 476 kts 272°
2026-05-07 03:35 43.52131 80.08716 36092 ft 478 kts 272°
2026-05-07 03:35 43.52437 79.99567 36091 ft 478 kts 272°
2026-05-07 03:36 43.52733 79.90470 36094 ft 478 kts 272°
2026-05-07 03:36 43.53027 79.81248 36094 ft 479 kts 272°
2026-05-07 03:37 43.53263 79.73634 36082 ft 479 kts 272°
2026-05-07 03:37 43.53543 79.64446 36078 ft 480 kts 272°
2026-05-07 03:38 43.53814 79.55260 36074 ft 480 kts 272°
2026-05-07 03:38 43.54078 79.46065 36073 ft 480 kts 272°
2026-05-07 03:39 43.54335 79.36866 36064 ft 480 kts 273°
2026-05-07 03:39 43.54585 79.27674 36057 ft 480 kts 273°
2026-05-07 03:40 43.54829 79.18485 36063 ft 480 kts 273°
2026-05-07 03:40 43.55063 79.09288 36052 ft 480 kts 273°
2026-05-07 03:41 43.55289 79.00103 36060 ft 479 kts 273°
2026-05-07 03:41 43.55508 78.90933 36058 ft 479 kts 273°
2026-05-07 03:42 43.55717 78.81821 36041 ft 479 kts 273°
2026-05-07 03:42 43.55925 78.72589 36047 ft 479 kts 273°
2026-05-07 03:43 43.56121 78.63478 36047 ft 478 kts 273°
2026-05-07 03:43 43.56312 78.54322 36045 ft 478 kts 273°
2026-05-07 03:44 43.56494 78.45177 36043 ft 478 kts 273°
2026-05-07 03:44 43.56669 78.36022 36044 ft 477 kts 273°
2026-05-07 03:45 43.56837 78.26863 36036 ft 477 kts 273°
2026-05-07 03:45 43.56998 78.17705 36042 ft 478 kts 273°
2026-05-07 03:46 43.57152 78.08548 36048 ft 478 kts 273°
2026-05-07 03:46 43.57299 77.99395 36040 ft 478 kts 273°
2026-05-07 03:47 43.57439 77.90236 36033 ft 477 kts 273°
2026-05-07 03:47 43.57571 77.81113 36018 ft 476 kts 272°
2026-05-07 03:48 43.57697 77.72001 36016 ft 475 kts 272°
2026-05-07 03:48 43.57816 77.62898 36019 ft 475 kts 272°
2026-05-07 03:49 43.57926 77.53801 36016 ft 473 kts 272°
2026-05-07 03:49 43.58086 77.44743 36022 ft 472 kts 274°
2026-05-07 03:50 43.58430 77.35716 36029 ft 471 kts 275°
2026-05-07 03:50 43.58783 77.26695 36028 ft 471 kts 274°
2026-05-07 03:51 43.59099 77.17682 36028 ft 470 kts 274°
2026-05-07 03:51 43.59320 77.08667 36034 ft 470 kts 272°
2026-05-07 03:52 43.59369 76.99656 36034 ft 470 kts 271°
2026-05-07 03:52 43.59410 76.90624 36018 ft 470 kts 272°
2026-05-07 03:53 43.59478 76.81606 36018 ft 470 kts 271°
2026-05-07 03:53 43.59548 76.72607 36017 ft 469 kts 271°
2026-05-07 03:54 43.59603 76.63617 36018 ft 469 kts 271°
2026-05-07 03:54 43.59650 76.54627 36015 ft 469 kts 271°
2026-05-07 03:55 43.59692 76.45637 36015 ft 468 kts 271°
2026-05-07 03:55 43.59726 76.36669 36015 ft 467 kts 271°
2026-05-07 03:56 43.59819 76.27705 36018 ft 467 kts 273°
2026-05-07 03:56 43.60274 76.18800 36024 ft 465 kts 275°
2026-05-07 03:57 43.60784 76.09909 36023 ft 464 kts 274°
2026-05-07 03:57 43.61231 76.01031 36015 ft 464 kts 274°
2026-05-07 03:58 43.61638 75.92141 36018 ft 464 kts 273°
2026-05-07 03:58 43.62030 75.83255 36020 ft 464 kts 273°
2026-05-07 03:59 43.62418 75.74364 36024 ft 464 kts 273°
2026-05-07 03:59 43.62800 75.65477 36023 ft 464 kts 273°
2026-05-07 04:00 43.63175 75.56598 36017 ft 464 kts 273°
2026-05-07 04:00 43.63543 75.47717 36021 ft 463 kts 273°
2026-05-07 04:01 43.63902 75.38838 36012 ft 463 kts 272°
2026-05-07 04:01 43.64253 75.29965 36018 ft 463 kts 272°
2026-05-07 04:02 43.64597 75.21101 36028 ft 463 kts 272°
2026-05-07 04:02 43.64935 75.12232 36021 ft 462 kts 272°
2026-05-07 04:03 43.65265 75.03394 36032 ft 460 kts 272°
2026-05-07 04:03 43.65587 74.94587 36019 ft 459 kts 272°
2026-05-07 04:04 43.65900 74.85840 36017 ft 459 kts 271°
2026-05-07 04:04 43.66210 74.76988 36016 ft 459 kts 271°
2026-05-07 04:05 43.66511 74.68192 36015 ft 459 kts 271°
2026-05-07 04:05 43.66806 74.59397 36013 ft 459 kts 271°
2026-05-07 04:06 43.67092 74.50649 36013 ft 459 kts 271°
2026-05-07 04:06 43.67373 74.41857 36011 ft 459 kts 271°
2026-05-07 04:07 43.67648 74.33058 36003 ft 458 kts 271°
2026-05-07 04:07 43.67914 74.24281 36009 ft 457 kts 271°
2026-05-07 04:08 43.68176 74.15521 36001 ft 456 kts 271°
2026-05-07 04:08 43.68441 74.06767 36004 ft 456 kts 271°
2026-05-07 04:09 43.68702 73.98010 36013 ft 456 kts 270°
2026-05-07 04:09 43.68954 73.89253 36008 ft 456 kts 270°
2026-05-07 04:10 43.69198 73.80493 35997 ft 456 kts 270°
2026-05-07 04:10 43.69179 73.71742 35997 ft 455 kts 265°
2026-05-07 04:11 43.68779 73.62995 36012 ft 456 kts 264°
2026-05-07 04:11 43.68319 73.54269 36011 ft 455 kts 264°
2026-05-07 04:12 43.67854 73.45549 36014 ft 455 kts 264°
2026-05-07 04:12 43.67390 73.36828 36009 ft 455 kts 264°
2026-05-07 04:13 43.66923 73.28108 36009 ft 455 kts 263°
2026-05-07 04:13 43.66451 73.19426 36004 ft 453 kts 263°
2026-05-07 04:14 43.65974 73.10759 36002 ft 452 kts 263°
2026-05-07 04:14 43.65490 73.02105 35999 ft 452 kts 263°
2026-05-07 04:15 43.65000 72.93454 35998 ft 452 kts 263°
2026-05-07 04:15 43.64503 72.84786 35997 ft 453 kts 263°
2026-05-07 04:16 43.63997 72.76105 35996 ft 454 kts 263°
2026-05-07 04:16 43.63489 72.67483 36003 ft 453 kts 263°
2026-05-07 04:17 43.62971 72.58812 36005 ft 453 kts 263°
2026-05-07 04:17 43.62447 72.50136 36006 ft 454 kts 263°
2026-05-07 04:18 43.61912 72.41407 36018 ft 454 kts 263°
2026-05-07 04:18 43.61374 72.32734 36021 ft 454 kts 263°
2026-05-07 04:19 43.60834 72.24123 36009 ft 453 kts 262°
2026-05-07 04:19 43.60279 72.15396 36013 ft 454 kts 262°
2026-05-07 04:20 43.59816 72.08193 36010 ft 454 kts 262°
2026-05-07 04:20 43.59161 71.98122 36010 ft 454 kts 262°
2026-05-07 04:21 43.58303 71.85127 36014 ft 453 kts 262°
2026-05-07 04:21 43.57818 71.77885 36013 ft 452 kts 262°
2026-05-07 04:22 43.57234 71.69251 36012 ft 452 kts 262°
2026-05-07 04:22 43.56644 71.60610 36018 ft 452 kts 262°
2026-05-07 04:23 43.56047 71.51982 36012 ft 452 kts 262°
2026-05-07 04:23 43.55443 71.43360 36011 ft 451 kts 262°
2026-05-07 04:24 43.54836 71.34778 36022 ft 450 kts 262°
2026-05-07 04:24 43.54222 71.26189 36007 ft 450 kts 262°
2026-05-07 04:25 43.53603 71.17612 36008 ft 450 kts 262°
2026-05-07 04:25 43.52976 71.09030 36011 ft 450 kts 262°
2026-05-07 04:26 43.52348 71.00517 36004 ft 450 kts 262°
2026-05-07 04:26 43.51710 70.91943 36011 ft 450 kts 262°
2026-05-07 04:27 43.51065 70.83381 36007 ft 450 kts 262°
2026-05-07 04:27 43.50405 70.74812 36005 ft 449 kts 262°
2026-05-07 04:28 43.49736 70.66267 36006 ft 448 kts 262°
2026-05-07 04:28 43.49063 70.57732 35998 ft 448 kts 262°
2026-05-07 04:29 43.48385 70.49199 36003 ft 448 kts 262°
2026-05-07 04:29 43.47701 70.40681 36011 ft 448 kts 262°
2026-05-07 04:30 43.47012 70.32165 36007 ft 447 kts 262°
2026-05-07 04:30 43.46318 70.23678 36009 ft 446 kts 262°
2026-05-07 04:31 43.45619 70.15193 36011 ft 446 kts 262°
2026-05-07 04:31 43.44912 70.06703 36003 ft 446 kts 262°
2026-05-07 04:32 43.44201 69.98238 35999 ft 445 kts 262°
2026-05-07 04:32 43.43483 69.89767 36001 ft 445 kts 262°
2026-05-07 04:33 43.42761 69.81313 36017 ft 445 kts 262°
2026-05-07 04:33 43.42034 69.72868 36007 ft 445 kts 262°
2026-05-07 04:34 43.41327 69.64408 36007 ft 445 kts 262°
2026-05-07 04:34 43.40625 69.55936 36003 ft 446 kts 262°
2026-05-07 04:35 43.39914 69.47473 35992 ft 446 kts 262°
2026-05-07 04:35 43.39192 69.39005 36004 ft 446 kts 262°
2026-05-07 04:36 43.38463 69.30549 35993 ft 445 kts 262°
2026-05-07 04:36 43.37729 69.22099 35999 ft 445 kts 262°
2026-05-07 04:37 43.36995 69.13660 35995 ft 445 kts 262°
2026-05-07 04:37 43.36299 69.05223 35997 ft 445 kts 262°
2026-05-07 04:38 43.35606 68.96775 35998 ft 444 kts 262°
2026-05-07 04:38 43.34902 68.88344 35993 ft 443 kts 262°
2026-05-07 04:39 43.34191 68.79956 35992 ft 443 kts 262°
2026-05-07 04:39 43.33475 68.71603 35994 ft 443 kts 262°
2026-05-07 04:40 43.32750 68.63207 35993 ft 443 kts 262°
2026-05-07 04:40 43.32004 68.54821 35995 ft 442 kts 260°
2026-05-07 04:41 43.31018 68.46510 35992 ft 441 kts 258°
2026-05-07 04:41 43.29953 68.38214 35968 ft 441 kts 258°
2026-05-07 04:42 43.28725 68.29980 35978 ft 440 kts 254°
2026-05-07 04:42 43.27126 68.21865 35963 ft 441 kts 253°
2026-05-07 04:43 43.25525 68.13756 35975 ft 440 kts 254°
2026-05-07 04:43 43.23984 68.05635 35977 ft 440 kts 254°
2026-05-07 04:44 43.22467 67.97505 35974 ft 440 kts 254°
2026-05-07 04:44 43.20948 67.89383 35969 ft 439 kts 254°
2026-05-07 04:45 43.19426 67.81292 35967 ft 438 kts 254°
2026-05-07 04:45 43.17901 67.73225 35966 ft 437 kts 254°
2026-05-07 04:46 43.16367 67.65161 35966 ft 437 kts 254°
2026-05-07 04:46 43.14828 67.57106 35969 ft 437 kts 254°
2026-05-07 04:47 43.13284 67.49057 35964 ft 437 kts 254°
2026-05-07 04:47 43.11736 67.41012 35966 ft 437 kts 254°
2026-05-07 04:48 43.10184 67.32971 35961 ft 437 kts 254°
2026-05-07 04:48 43.08626 67.24934 35960 ft 437 kts 254°
2026-05-07 04:49 43.07068 67.16929 35962 ft 435 kts 254°
2026-05-07 04:49 43.05507 67.08944 35955 ft 434 kts 254°
2026-05-07 04:50 43.03942 67.00966 35957 ft 434 kts 253°
2026-05-07 04:50 43.02371 66.92993 35954 ft 434 kts 253°
2026-05-07 04:51 43.00797 66.85038 35947 ft 433 kts 253°
2026-05-07 04:51 42.99224 66.77114 35947 ft 432 kts 253°
2026-05-07 04:52 42.97631 66.69205 35944 ft 432 kts 253°
2026-05-07 04:52 42.96021 66.61301 35949 ft 432 kts 253°
2026-05-07 04:53 42.94419 66.53409 35942 ft 431 kts 253°
2026-05-07 04:53 42.92841 66.45534 35945 ft 430 kts 253°
2026-05-07 04:54 42.91268 66.37705 35928 ft 430 kts 253°
2026-05-07 04:54 42.89677 66.29840 35932 ft 430 kts 253°
2026-05-07 04:55 42.88081 66.21983 35944 ft 430 kts 252°
2026-05-07 04:55 42.86477 66.14125 35942 ft 430 kts 252°
2026-05-07 04:56 42.84866 66.06267 35942 ft 430 kts 252°
2026-05-07 04:56 42.83236 65.98415 35928 ft 430 kts 252°
2026-05-07 04:57 42.81597 65.90574 35939 ft 430 kts 252°
2026-05-07 04:57 42.79955 65.82732 35937 ft 431 kts 252°
2026-05-07 04:58 42.78307 65.74886 35934 ft 431 kts 252°
2026-05-07 04:58 42.76656 65.67052 35943 ft 431 kts 252°
2026-05-07 04:59 42.74998 65.59216 35942 ft 431 kts 252°
2026-05-07 04:59 42.73335 65.51391 35943 ft 430 kts 252°
2026-05-07 05:00 42.71669 65.43580 35942 ft 430 kts 252°
2026-05-07 05:00 42.69998 65.35769 35944 ft 430 kts 252°
2026-05-07 05:01 42.68322 65.27964 35952 ft 430 kts 252°
2026-05-07 05:01 42.66641 65.20166 35947 ft 430 kts 252°
2026-05-07 05:02 42.64955 65.12375 35949 ft 430 kts 252°
2026-05-07 05:02 42.63264 65.04592 35952 ft 430 kts 252°
2026-05-07 05:03 42.61567 64.96806 35949 ft 430 kts 252°
2026-05-07 05:03 42.59879 64.89089 35936 ft 429 kts 252°
2026-05-07 05:04 42.58175 64.81327 35936 ft 429 kts 251°
2026-05-07 05:04 42.56469 64.73581 35953 ft 429 kts 251°
2026-05-07 05:05 42.54753 64.65822 35953 ft 429 kts 251°
2026-05-07 05:05 42.53035 64.58077 35944 ft 430 kts 251°
2026-05-07 05:06 42.51305 64.50312 35942 ft 430 kts 251°
2026-05-07 05:06 42.49569 64.42546 35947 ft 430 kts 251°
2026-05-07 05:07 42.48111 64.36045 35939 ft 431 kts 251°
2026-05-07 05:07 42.46366 64.28291 35938 ft 430 kts 251°
2026-05-07 05:08 42.44628 64.20591 35940 ft 430 kts 251°
2026-05-07 05:08 42.42887 64.12839 35935 ft 430 kts 251°
2026-05-07 05:09 42.41149 64.05090 35935 ft 430 kts 251°
2026-05-07 05:09 42.39403 63.97344 35924 ft 431 kts 251°
2026-05-07 05:10 42.37623 63.89591 35926 ft 432 kts 250°
2026-05-07 05:10 42.35827 63.81835 35922 ft 432 kts 250°
2026-05-07 05:11 42.34026 63.74073 35919 ft 432 kts 250°
2026-05-07 05:11 42.32225 63.66318 35917 ft 433 kts 250°
2026-05-07 05:12 42.30418 63.58563 35912 ft 433 kts 250°
2026-05-07 05:12 42.28605 63.50811 35905 ft 433 kts 250°
2026-05-07 05:13 42.26785 63.43058 35899 ft 433 kts 250°
2026-05-07 05:13 42.24960 63.35308 35903 ft 433 kts 250°
2026-05-07 05:14 42.23132 63.27575 35900 ft 432 kts 250°
2026-05-07 05:14 42.21301 63.19852 35882 ft 432 kts 250°
2026-05-07 05:15 42.19463 63.12127 35884 ft 432 kts 250°
2026-05-07 05:15 42.17622 63.04414 35888 ft 432 kts 250°
2026-05-07 05:16 42.15772 62.96686 35884 ft 433 kts 250°
2026-05-07 05:16 42.13919 62.88961 35882 ft 433 kts 250°
2026-05-07 05:17 42.12062 62.81240 35878 ft 433 kts 250°
2026-05-07 05:17 42.10199 62.73519 35874 ft 433 kts 249°
2026-05-07 05:18 42.08331 62.65801 35873 ft 434 kts 249°
2026-05-07 05:18 42.06458 62.58088 35868 ft 434 kts 249°
2026-05-07 05:19 42.04577 62.50374 35864 ft 434 kts 249°
2026-05-07 05:19 42.02704 62.42721 35867 ft 434 kts 249°
2026-05-07 05:20 42.00799 62.34960 35863 ft 435 kts 249°
2026-05-07 05:20 41.98901 62.27251 35862 ft 435 kts 249°
2026-05-07 05:21 41.96042 62.15686 35861 ft 435 kts 249°
2026-05-07 05:22 41.94131 62.07990 35851 ft 434 kts 249°
2026-05-07 05:22 41.92222 62.00313 35851 ft 433 kts 249°
2026-05-07 05:23 41.90310 61.92643 35852 ft 433 kts 249°
2026-05-07 05:23 41.88395 61.84984 35852 ft 433 kts 249°
2026-05-07 05:24 41.86487 61.77381 35861 ft 432 kts 249°
2026-05-07 05:24 41.84570 61.69768 35863 ft 430 kts 249°
2026-05-07 05:25 41.82645 61.62175 35860 ft 430 kts 249°
2026-05-07 05:25 41.80712 61.54577 35860 ft 430 kts 249°
2026-05-07 05:26 41.78778 61.46996 35868 ft 429 kts 248°
2026-05-07 05:26 41.76845 61.39435 35865 ft 429 kts 248°
2026-05-07 05:27 41.74908 61.31885 35867 ft 429 kts 248°
2026-05-07 05:27 41.72964 61.24333 35871 ft 429 kts 248°
2026-05-07 05:28 41.71017 61.16793 35871 ft 429 kts 248°
2026-05-07 05:28 41.69066 61.09259 35871 ft 429 kts 248°
2026-05-07 05:29 41.67107 61.01722 35876 ft 429 kts 248°
2026-05-07 05:29 41.65147 60.94200 35875 ft 429 kts 248°
2026-05-07 05:30 41.63180 60.86677 35863 ft 427 kts 248°
2026-05-07 05:30 41.61217 60.79190 35859 ft 427 kts 248°
2026-05-07 05:31 41.59250 60.71713 35856 ft 427 kts 248°
2026-05-07 05:31 41.57293 60.64290 35854 ft 427 kts 248°
2026-05-07 05:32 41.55483 60.56737 35859 ft 426 kts 250°
2026-05-07 05:32 41.53779 60.49176 35861 ft 425 kts 250°
2026-05-07 05:33 41.52052 60.41642 35869 ft 425 kts 250°
2026-05-07 05:33 41.50295 60.34123 35877 ft 424 kts 249°
2026-05-07 05:34 41.48525 60.26611 35885 ft 424 kts 249°
2026-05-07 05:34 41.46752 60.19114 35894 ft 424 kts 249°
2026-05-07 05:35 41.44964 60.11633 35899 ft 424 kts 249°
2026-05-07 05:35 41.43157 60.04146 35907 ft 424 kts 249°
2026-05-07 05:36 41.41350 59.96673 35909 ft 424 kts 249°
2026-05-07 05:36 41.39541 59.89208 35916 ft 423 kts 249°
2026-05-07 05:37 41.37730 59.81754 35928 ft 423 kts 249°
2026-05-07 05:37 41.35913 59.74298 35929 ft 423 kts 249°
2026-05-07 05:38 41.34226 59.66788 35931 ft 426 kts 255°
2026-05-07 05:38 41.33333 59.59001 35930 ft 425 kts 258°
2026-05-07 05:39 41.32601 59.51195 35957 ft 425 kts 258°
2026-05-07 05:39 41.31887 59.43401 35931 ft 424 kts 258°
2026-05-07 05:40 41.31158 59.35608 35939 ft 424 kts 258°
2026-05-07 05:40 41.30416 59.27832 35949 ft 424 kts 258°
2026-05-07 05:41 41.29667 59.20056 35946 ft 424 kts 258°
2026-05-07 05:41 41.28913 59.12288 35952 ft 424 kts 258°
2026-05-07 05:42 41.28154 59.04519 35955 ft 424 kts 258°
2026-05-07 05:42 41.27395 58.96803 35950 ft 423 kts 258°
2026-05-07 05:43 41.26628 58.89052 35968 ft 423 kts 258°
2026-05-07 05:43 41.25856 58.81311 35960 ft 423 kts 258°
2026-05-07 05:44 41.25078 58.73569 35969 ft 422 kts 258°
2026-05-07 05:44 41.24296 58.65833 35972 ft 422 kts 257°
2026-05-07 05:45 41.23510 58.58104 35976 ft 422 kts 257°
2026-05-07 05:45 41.22720 58.50391 35981 ft 421 kts 257°
2026-05-07 05:46 41.21926 58.42704 35984 ft 420 kts 257°
2026-05-07 05:46 41.21128 58.35022 35985 ft 420 kts 257°
2026-05-07 05:47 41.20325 58.27350 35991 ft 419 kts 257°
2026-05-07 05:47 41.19519 58.19687 35987 ft 418 kts 257°
2026-05-07 05:48 41.18709 58.12042 35990 ft 418 kts 257°
2026-05-07 05:48 41.17895 58.04396 35991 ft 418 kts 257°
2026-05-07 05:49 41.17075 57.96752 35994 ft 418 kts 257°
2026-05-07 05:49 41.16251 57.89116 35993 ft 418 kts 257°
2026-05-07 05:50 41.15421 57.81480 36000 ft 418 kts 257°
2026-05-07 05:50 41.14588 57.73851 36004 ft 418 kts 257°
2026-05-07 05:51 41.13754 57.66271 36005 ft 418 kts 257°
2026-05-07 05:51 41.12905 57.58602 36008 ft 418 kts 257°
2026-05-07 05:52 41.12059 57.50993 36010 ft 416 kts 257°
2026-05-07 05:52 41.11216 57.43466 36015 ft 415 kts 256°
2026-05-07 05:53 41.10363 57.35897 36018 ft 415 kts 256°
2026-05-07 05:53 41.09644 57.29560 36017 ft 415 kts 256°
2026-05-07 05:54 41.08783 57.22002 36018 ft 414 kts 256°
2026-05-07 05:54 41.07919 57.14462 36023 ft 413 kts 256°
2026-05-07 05:55 41.07051 57.06942 36024 ft 413 kts 256°
2026-05-07 05:55 41.06178 56.99416 36033 ft 413 kts 256°
2026-05-07 05:56 41.05305 56.91935 36050 ft 413 kts 256°
2026-05-07 05:56 41.04419 56.84379 36036 ft 412 kts 256°
2026-05-07 05:57 41.03541 56.76939 36042 ft 411 kts 256°
2026-05-07 05:57 41.02653 56.69457 36042 ft 411 kts 256°
2026-05-07 05:58 41.01759 56.61976 36045 ft 411 kts 256°
2026-05-07 05:58 41.00862 56.54502 36051 ft 410 kts 256°
2026-05-07 05:59 41.00382 56.46953 36049 ft 414 kts 262°
2026-05-07 05:59 41.00259 56.39351 36045 ft 413 kts 263°
2026-05-07 06:00 41.00182 56.31757 36051 ft 412 kts 263°
2026-05-07 06:00 41.00097 56.24166 36056 ft 412 kts 263°
2026-05-07 06:01 41.00000 56.16577 36057 ft 412 kts 262°
2026-05-07 06:01 40.99894 56.08998 36063 ft 412 kts 262°
2026-05-07 06:02 40.99783 56.01424 36058 ft 412 kts 262°
2026-05-07 06:02 40.99667 55.93846 36067 ft 412 kts 262°
2026-05-07 06:03 40.99547 55.86265 36060 ft 412 kts 262°
2026-05-07 06:03 40.99422 55.78674 36071 ft 412 kts 262°
2026-05-07 06:04 40.99300 55.71094 36063 ft 411 kts 262°
2026-05-07 06:04 40.99184 55.63528 36067 ft 411 kts 262°
2026-05-07 06:05 40.99063 55.55962 36072 ft 411 kts 262°
2026-05-07 06:05 40.98934 55.48390 36069 ft 411 kts 262°
2026-05-07 06:06 40.98800 55.40834 36079 ft 411 kts 262°
2026-05-07 06:06 40.98661 55.33275 36104 ft 411 kts 262°
2026-05-07 06:07 40.98516 55.25701 36076 ft 412 kts 262°
2026-05-07 06:07 40.98367 55.18115 36077 ft 412 kts 262°
2026-05-07 06:08 40.98213 55.10529 36081 ft 412 kts 262°
2026-05-07 06:08 40.98054 55.02941 36080 ft 412 kts 262°
2026-05-07 06:09 40.97890 54.95354 36085 ft 413 kts 262°
2026-05-07 06:09 40.97721 54.87768 36090 ft 413 kts 262°
2026-05-07 06:10 40.97542 54.80175 36087 ft 413 kts 261°
2026-05-07 06:10 40.97353 54.72594 36091 ft 413 kts 261°
2026-05-07 06:11 40.97159 54.64992 36090 ft 414 kts 261°
2026-05-07 06:11 40.96961 54.57372 36094 ft 415 kts 261°
2026-05-07 06:12 40.96760 54.49796 36093 ft 415 kts 261°
2026-05-07 06:12 40.96553 54.42161 36094 ft 415 kts 261°
2026-05-07 06:13 40.96341 54.34540 36096 ft 415 kts 261°
2026-05-07 06:13 40.96123 54.26914 36100 ft 415 kts 261°
2026-05-07 06:14 40.95899 54.19237 36100 ft 415 kts 261°
2026-05-07 06:14 40.95673 54.11664 36102 ft 415 kts 261°
2026-05-07 06:15 40.95440 54.04045 36104 ft 415 kts 261°
2026-05-07 06:15 40.95202 53.96405 36105 ft 416 kts 261°
2026-05-07 06:16 40.94958 53.88767 36104 ft 416 kts 261°
2026-05-07 06:16 40.94710 53.81126 36104 ft 416 kts 261°
2026-05-07 06:17 40.94457 53.73495 36108 ft 416 kts 261°
2026-05-07 06:17 40.94199 53.65858 36100 ft 416 kts 261°
2026-05-07 06:18 40.93935 53.58220 36106 ft 416 kts 261°
2026-05-07 06:18 40.93667 53.50586 36109 ft 415 kts 261°
2026-05-07 06:19 40.93394 53.42955 36112 ft 415 kts 261°
2026-05-07 06:19 40.93116 53.35329 36120 ft 415 kts 261°
2026-05-07 06:20 40.92833 53.27707 36115 ft 415 kts 261°
2026-05-07 06:20 40.92544 53.20077 36112 ft 415 kts 261°
2026-05-07 06:21 40.92251 53.12450 36121 ft 415 kts 261°
2026-05-07 06:21 40.91949 53.04827 36123 ft 415 kts 261°
2026-05-07 06:22 40.91635 52.97209 36115 ft 415 kts 261°
2026-05-07 06:22 40.91158 52.85786 36137 ft 415 kts 261°
2026-05-07 06:23 40.90833 52.78168 36121 ft 415 kts 261°
2026-05-07 06:23 40.90504 52.70543 36121 ft 415 kts 261°
2026-05-07 06:24 40.90165 52.62974 36128 ft 415 kts 260°
2026-05-07 06:24 40.89263 52.55500 36122 ft 411 kts 254°
2026-05-07 06:25 40.88119 52.48093 36127 ft 412 kts 253°
2026-05-07 06:25 40.86938 52.40691 36127 ft 412 kts 253°
2026-05-07 06:26 40.85759 52.33292 36124 ft 412 kts 253°
2026-05-07 06:26 40.84584 52.25898 36124 ft 411 kts 253°
2026-05-07 06:27 40.83408 52.18509 36124 ft 411 kts 253°
2026-05-07 06:27 40.82227 52.11127 36124 ft 411 kts 253°
2026-05-07 06:28 40.81041 52.03749 36139 ft 411 kts 253°
2026-05-07 06:28 40.79849 51.96366 36136 ft 411 kts 253°
2026-05-07 06:29 40.78653 51.88984 36132 ft 411 kts 253°
2026-05-07 06:29 40.77452 51.81606 36132 ft 411 kts 253°
2026-05-07 06:30 40.76247 51.74237 36135 ft 411 kts 253°
2026-05-07 06:30 40.75037 51.66868 36135 ft 411 kts 253°
2026-05-07 06:31 40.73824 51.59511 36135 ft 410 kts 253°
2026-05-07 06:31 40.72618 51.52163 36127 ft 411 kts 254°
2026-05-07 06:32 40.72027 51.44623 36137 ft 414 kts 261°
2026-05-07 06:32 40.71704 51.37039 36138 ft 414 kts 261°
2026-05-07 06:33 40.71418 51.29513 36135 ft 414 kts 261°
2026-05-07 06:33 40.71118 51.21888 36135 ft 414 kts 261°
2026-05-07 06:34 40.70808 51.14356 36135 ft 414 kts 261°
2026-05-07 06:34 40.70488 51.06775 36135 ft 414 kts 261°
2026-05-07 06:35 40.70163 50.99194 36136 ft 414 kts 261°
2026-05-07 06:35 40.69833 50.91615 36135 ft 414 kts 261°
2026-05-07 06:36 40.69499 50.84042 36129 ft 414 kts 261°
2026-05-07 06:36 40.69161 50.76480 36129 ft 413 kts 261°
2026-05-07 06:37 40.68817 50.68925 36133 ft 413 kts 261°
2026-05-07 06:37 40.68469 50.61361 36129 ft 414 kts 261°
2026-05-07 06:38 40.68115 50.53796 36123 ft 414 kts 261°
2026-05-07 06:38 40.67757 50.46235 36120 ft 414 kts 261°
2026-05-07 06:39 40.67453 50.39892 36111 ft 414 kts 261°
2026-05-07 06:39 40.67087 50.32378 36108 ft 413 kts 261°
2026-05-07 06:40 40.66713 50.24821 36115 ft 413 kts 261°
2026-05-07 06:40 40.66335 50.17276 36107 ft 413 kts 261°
2026-05-07 06:41 40.65952 50.09725 36134 ft 414 kts 261°
2026-05-07 06:41 40.65563 50.02155 36107 ft 414 kts 260°
2026-05-07 06:42 40.65170 49.94590 36105 ft 414 kts 260°
2026-05-07 06:42 40.64771 49.87021 36107 ft 414 kts 260°
2026-05-07 06:43 40.64368 49.79451 36108 ft 414 kts 260°
2026-05-07 06:43 40.63960 49.71893 36106 ft 414 kts 260°
2026-05-07 06:44 40.63547 49.64336 36110 ft 413 kts 260°
2026-05-07 06:44 40.63130 49.56794 36109 ft 413 kts 260°
2026-05-07 06:45 40.62708 49.49249 36112 ft 414 kts 260°
2026-05-07 06:45 40.62279 49.41685 36107 ft 414 kts 260°
2026-05-07 06:46 40.61846 49.34115 36111 ft 415 kts 260°
2026-05-07 06:46 40.61407 49.26547 36109 ft 415 kts 260°
2026-05-07 06:47 40.60964 49.18985 36111 ft 414 kts 260°
2026-05-07 06:47 40.60715 49.11385 36117 ft 417 kts 263°
2026-05-07 06:48 40.60641 49.03812 36114 ft 416 kts 263°
2026-05-07 06:48 40.60540 48.96152 36143 ft 416 kts 263°
2026-05-07 06:49 40.60398 48.88591 36119 ft 417 kts 262°
2026-05-07 06:49 40.60236 48.80965 36121 ft 417 kts 262°
2026-05-07 06:50 40.60068 48.73335 36128 ft 417 kts 262°
2026-05-07 06:50 40.59897 48.65714 36133 ft 417 kts 262°
2026-05-07 06:51 40.59721 48.58079 36126 ft 417 kts 262°
2026-05-07 06:51 40.59541 48.50459 36131 ft 417 kts 262°
2026-05-07 06:52 40.59356 48.42835 36143 ft 416 kts 262°
2026-05-07 06:52 40.59165 48.35212 36138 ft 417 kts 262°
2026-05-07 06:53 40.58969 48.27585 36143 ft 417 kts 262°
2026-05-07 06:53 40.58769 48.19947 36145 ft 417 kts 262°
2026-05-07 06:54 40.58565 48.12321 36150 ft 417 kts 262°
2026-05-07 06:54 40.58353 48.04693 36149 ft 417 kts 262°
2026-05-07 06:55 40.58135 47.97078 36148 ft 416 kts 262°
2026-05-07 06:55 40.58058 47.89452 36158 ft 420 kts 265°
2026-05-07 06:56 40.58385 47.81769 36149 ft 421 kts 267°
2026-05-07 06:56 40.58734 47.74088 36149 ft 420 kts 266°
2026-05-07 06:57 40.59012 47.66415 36144 ft 420 kts 266°
2026-05-07 06:57 40.59250 47.58747 36153 ft 420 kts 265°
2026-05-07 06:58 40.59477 47.51076 36148 ft 419 kts 265°
2026-05-07 06:58 40.59702 47.43413 36154 ft 419 kts 265°
2026-05-07 06:59 40.59923 47.35753 36157 ft 419 kts 265°
2026-05-07 06:59 40.60141 47.28090 36159 ft 419 kts 265°
2026-05-07 07:00 40.60355 47.20433 36157 ft 419 kts 265°
2026-05-07 07:00 40.60980 47.12758 36157 ft 422 kts 270°
2026-05-07 07:01 40.61756 47.05110 36159 ft 422 kts 270°
2026-05-07 07:01 40.62549 46.97452 36156 ft 423 kts 271°
2026-05-07 07:02 40.63336 46.89774 36154 ft 424 kts 270°
2026-05-07 07:02 40.64114 46.82080 36148 ft 423 kts 270°
2026-05-07 07:03 40.64884 46.74400 36149 ft 423 kts 270°
2026-05-07 07:03 40.65649 46.66712 36151 ft 423 kts 270°
2026-05-07 07:04 40.66410 46.59019 36154 ft 424 kts 270°
2026-05-07 07:04 40.67167 46.51302 36155 ft 425 kts 270°
2026-05-07 07:05 40.67920 46.43587 36157 ft 425 kts 270°
2026-05-07 07:05 40.68663 46.35916 36155 ft 425 kts 270°
2026-05-07 07:06 40.69405 46.28199 36156 ft 424 kts 270°
2026-05-07 07:06 40.70142 46.20475 36156 ft 426 kts 270°
2026-05-07 07:07 40.70880 46.12669 36149 ft 427 kts 270°
2026-05-07 07:07 40.71607 46.04947 36150 ft 428 kts 270°
2026-05-07 07:08 40.72335 45.97166 36150 ft 428 kts 270°
2026-05-07 07:08 40.73056 45.89386 36149 ft 427 kts 270°
2026-05-07 07:09 40.73770 45.81616 36138 ft 428 kts 270°
2026-05-07 07:09 40.74482 45.73807 36149 ft 429 kts 270°
2026-05-07 07:10 40.75191 45.65991 36137 ft 429 kts 270°
2026-05-07 07:10 40.75894 45.58177 36152 ft 429 kts 270°
2026-05-07 07:11 40.76592 45.50364 36147 ft 429 kts 270°
2026-05-07 07:11 40.77107 45.42546 36144 ft 427 kts 267°
2026-05-07 07:12 40.77394 45.34711 36142 ft 429 kts 266°
2026-05-07 07:12 40.77690 45.26847 36140 ft 430 kts 267°
2026-05-07 07:13 40.78029 45.18969 36145 ft 430 kts 267°
2026-05-07 07:13 40.78380 45.11103 36145 ft 429 kts 267°
2026-05-07 07:14 40.78728 45.03241 36136 ft 429 kts 267°
2026-05-07 07:14 40.79064 44.95426 36135 ft 430 kts 267°
2026-05-07 07:15 40.79392 44.87534 36144 ft 431 kts 267°
2026-05-07 07:15 40.79718 44.79646 36140 ft 430 kts 267°
2026-05-07 07:16 40.80039 44.71760 36135 ft 430 kts 267°
2026-05-07 07:16 40.80357 44.63872 36132 ft 431 kts 267°
2026-05-07 07:17 40.80668 44.55976 36140 ft 431 kts 267°
2026-05-07 07:17 40.80974 44.48057 36136 ft 432 kts 267°
2026-05-07 07:18 40.81274 44.40127 36138 ft 433 kts 267°
2026-05-07 07:18 40.81569 44.32195 36136 ft 433 kts 267°
2026-05-07 07:19 40.81859 44.24259 36139 ft 433 kts 267°
2026-05-07 07:19 40.82143 44.16333 36153 ft 433 kts 267°
2026-05-07 07:20 40.82423 44.08371 36145 ft 435 kts 267°
2026-05-07 07:20 40.82698 44.00387 36142 ft 436 kts 267°
2026-05-07 07:21 40.82969 43.92390 36145 ft 436 kts 267°
2026-05-07 07:21 40.83234 43.84400 36145 ft 436 kts 267°
2026-05-07 07:22 40.83493 43.76412 36147 ft 436 kts 267°
2026-05-07 07:22 40.83745 43.68466 36156 ft 437 kts 267°
2026-05-07 07:23 40.84113 43.60430 36157 ft 439 kts 269°
2026-05-07 07:23 40.84608 43.52394 36157 ft 439 kts 269°
2026-05-07 07:24 40.85087 43.44356 36157 ft 439 kts 269°
2026-05-07 07:24 40.85533 43.36316 36164 ft 438 kts 269°
2026-05-07 07:25 40.86176 43.24275 36172 ft 438 kts 269°
2026-05-07 07:26 40.86528 43.17597 36171 ft 438 kts 269°
2026-05-07 07:26 40.86945 43.09566 36173 ft 438 kts 269°
2026-05-07 07:27 40.87361 43.01483 36177 ft 438 kts 269°
2026-05-07 07:27 40.87765 42.93513 36176 ft 438 kts 269°
2026-05-07 07:28 40.88167 42.85471 36183 ft 440 kts 269°
2026-05-07 07:28 40.88566 42.77391 36183 ft 441 kts 269°
2026-05-07 07:29 40.88959 42.69305 36185 ft 441 kts 269°
2026-05-07 07:29 40.89346 42.61227 36187 ft 441 kts 269°
2026-05-07 07:30 40.89728 42.53147 36187 ft 441 kts 269°
2026-05-07 07:30 40.90103 42.45056 36197 ft 442 kts 269°
2026-05-07 07:31 40.90475 42.36926 36188 ft 444 kts 269°
2026-05-07 07:31 40.90843 42.28781 36188 ft 443 kts 269°
2026-05-07 07:32 40.91204 42.20655 36192 ft 442 kts 269°
2026-05-07 07:32 40.91558 42.12533 36184 ft 442 kts 269°
2026-05-07 07:33 40.91907 42.04407 36194 ft 444 kts 269°
2026-05-07 07:33 40.92252 41.96233 36185 ft 446 kts 269°
2026-05-07 07:34 40.92593 41.88047 36185 ft 446 kts 269°
2026-05-07 07:34 40.92927 41.79852 36180 ft 446 kts 269°
2026-05-07 07:35 40.93256 41.71666 36182 ft 446 kts 269°
2026-05-07 07:35 40.93578 41.63482 36176 ft 446 kts 269°
2026-05-07 07:36 40.93897 41.55263 36183 ft 448 kts 269°
2026-05-07 07:36 40.94208 41.47034 36190 ft 448 kts 269°
2026-05-07 07:37 40.94515 41.38810 36186 ft 448 kts 269°
2026-05-07 07:37 40.94816 41.30577 36188 ft 448 kts 269°
2026-05-07 07:38 40.95110 41.22354 36206 ft 449 kts 269°
2026-05-07 07:38 40.95399 41.14083 36205 ft 451 kts 269°
2026-05-07 07:39 40.95685 41.05800 36206 ft 451 kts 269°
2026-05-07 07:39 40.95965 40.97506 36207 ft 451 kts 269°
2026-05-07 07:40 40.96238 40.89227 36214 ft 451 kts 269°
2026-05-07 07:40 40.96506 40.80945 36210 ft 451 kts 269°
2026-05-07 07:41 40.96768 40.72635 36210 ft 452 kts 269°
2026-05-07 07:41 40.97023 40.64317 36210 ft 452 kts 269°
2026-05-07 07:42 40.97272 40.55998 36210 ft 452 kts 269°
2026-05-07 07:42 40.97516 40.47693 36208 ft 452 kts 269°
2026-05-07 07:43 40.97752 40.39430 36211 ft 453 kts 269°
2026-05-07 07:43 40.97985 40.31086 36209 ft 454 kts 269°
2026-05-07 07:44 40.98212 40.22739 36211 ft 454 kts 269°
2026-05-07 07:44 40.98432 40.14387 36218 ft 454 kts 269°
2026-05-07 07:45 40.98643 40.06041 36223 ft 453 kts 269°
2026-05-07 07:45 40.98847 39.97702 36233 ft 454 kts 269°
2026-05-07 07:46 40.99047 39.89346 36238 ft 455 kts 269°
2026-05-07 07:46 40.99254 39.80978 36230 ft 455 kts 271°
2026-05-07 07:47 40.99932 39.72642 36239 ft 455 kts 274°
2026-05-07 07:47 41.00721 39.64332 36236 ft 455 kts 275°
2026-05-07 07:48 41.01524 39.56021 36228 ft 456 kts 275°
2026-05-07 07:48 41.02319 39.47688 36218 ft 456 kts 275°
2026-05-07 07:49 41.03101 39.39363 36207 ft 455 kts 275°
2026-05-07 07:49 41.03874 39.31054 36198 ft 455 kts 275°
2026-05-07 07:50 41.04643 39.22724 36199 ft 455 kts 275°
2026-05-07 07:50 41.05405 39.14397 36200 ft 455 kts 275°
2026-05-07 07:51 41.06170 39.06078 36193 ft 455 kts 275°
2026-05-07 07:51 41.06940 38.97754 36200 ft 455 kts 275°
2026-05-07 07:52 41.07703 38.89437 36196 ft 455 kts 275°
2026-05-07 07:52 41.08458 38.81111 36202 ft 455 kts 275°
2026-05-07 07:53 41.09209 38.72769 36199 ft 455 kts 275°
2026-05-07 07:53 41.09943 38.64492 36205 ft 455 kts 274°
2026-05-07 07:54 41.10659 38.56162 36208 ft 455 kts 274°
2026-05-07 07:54 41.11354 38.47818 36208 ft 455 kts 274°
2026-05-07 07:55 41.12043 38.39472 36207 ft 456 kts 274°
2026-05-07 07:55 41.12730 38.31125 36211 ft 455 kts 274°
2026-05-07 07:56 41.13416 38.22769 36212 ft 456 kts 274°
2026-05-07 07:56 41.14099 38.14418 36204 ft 455 kts 274°
2026-05-07 07:57 41.14776 38.06075 36208 ft 456 kts 275°
2026-05-07 07:57 41.15448 37.97714 36210 ft 456 kts 275°
2026-05-07 07:58 41.16114 37.89344 36202 ft 456 kts 275°
2026-05-07 07:58 41.16799 37.80987 36202 ft 456 kts 275°
2026-05-07 07:59 41.17517 37.72634 36193 ft 455 kts 275°
2026-05-07 07:59 41.18226 37.64332 36194 ft 456 kts 275°
2026-05-07 08:00 41.18846 37.55969 36197 ft 455 kts 273°
2026-05-07 08:00 41.19321 37.47584 36184 ft 456 kts 274°
2026-05-07 08:01 41.19930 37.39214 36185 ft 455 kts 274°
2026-05-07 08:01 41.20566 37.30847 36196 ft 455 kts 275°
2026-05-07 08:02 41.21188 37.22486 36188 ft 456 kts 275°
2026-05-07 08:02 41.21825 37.14109 36185 ft 455 kts 275°
2026-05-07 08:03 41.22483 37.05740 36179 ft 455 kts 275°
2026-05-07 08:03 41.23131 36.97373 36175 ft 455 kts 275°
2026-05-07 08:04 41.23769 36.88998 36173 ft 456 kts 275°
2026-05-07 08:04 41.24398 36.80629 36177 ft 455 kts 275°
2026-05-07 08:05 41.25022 36.72255 36184 ft 455 kts 275°
2026-05-07 08:05 41.25639 36.63887 36172 ft 455 kts 275°
2026-05-07 08:06 41.26379 36.55549 36172 ft 455 kts 281°
2026-05-07 08:06 41.28155 36.47482 36175 ft 453 kts 287°
2026-05-07 08:07 41.30150 36.39600 36175 ft 452 kts 288°
2026-05-07 08:07 41.32185 36.31693 36179 ft 452 kts 288°
2026-05-07 08:08 41.34207 36.23770 36175 ft 452 kts 288°
2026-05-07 08:08 41.36209 36.15852 36176 ft 451 kts 288°
2026-05-07 08:09 41.38205 36.07924 36174 ft 451 kts 288°
2026-05-07 08:09 41.40193 35.99996 36172 ft 451 kts 288°
2026-05-07 08:10 41.42174 35.92069 36171 ft 451 kts 288°
2026-05-07 08:10 41.44149 35.84144 36172 ft 450 kts 288°
2026-05-07 08:11 41.46118 35.76219 36172 ft 450 kts 288°
2026-05-07 08:11 41.48080 35.68297 36170 ft 450 kts 288°
2026-05-07 08:12 41.50039 35.60362 36167 ft 450 kts 288°
2026-05-07 08:12 41.51988 35.52428 36168 ft 450 kts 288°
2026-05-07 08:13 41.53605 35.45829 36169 ft 450 kts 288°
2026-05-07 08:13 41.55545 35.37883 36156 ft 450 kts 288°
2026-05-07 08:14 41.57478 35.29949 36161 ft 449 kts 288°
2026-05-07 08:14 41.59397 35.22038 36162 ft 447 kts 288°
2026-05-07 08:15 41.61307 35.14141 36161 ft 447 kts 288°
2026-05-07 08:15 41.63211 35.06241 36155 ft 446 kts 288°
2026-05-07 08:16 41.65030 34.98662 36157 ft 445 kts 288°
2026-05-07 08:16 41.66914 34.90791 36159 ft 444 kts 288°
2026-05-07 08:17 41.68793 34.82918 36160 ft 444 kts 288°
2026-05-07 08:17 41.70665 34.75044 36149 ft 444 kts 288°
2026-05-07 08:18 41.72525 34.67185 36156 ft 442 kts 288°
2026-05-07 08:18 41.74379 34.59338 36157 ft 442 kts 288°
2026-05-07 08:19 41.76225 34.51495 36153 ft 442 kts 288°
2026-05-07 08:19 41.78049 34.43713 36146 ft 442 kts 289°
2026-05-07 08:20 41.79881 34.35871 36158 ft 440 kts 289°
2026-05-07 08:20 41.81703 34.28046 36153 ft 440 kts 289°
2026-05-07 08:21 41.83520 34.20213 36152 ft 440 kts 288°
2026-05-07 08:21 41.85322 34.12420 36159 ft 440 kts 289°
2026-05-07 08:22 41.87125 34.04596 36155 ft 439 kts 289°
2026-05-07 08:22 41.88924 33.96767 36155 ft 438 kts 288°
2026-05-07 08:23 41.90713 33.88945 36159 ft 438 kts 288°
2026-05-07 08:23 41.92496 33.81121 36150 ft 438 kts 288°
2026-05-07 08:24 41.94274 33.73296 36150 ft 438 kts 288°
2026-05-07 08:24 41.95991 33.65452 36147 ft 438 kts 286°
2026-05-07 08:25 41.97491 33.57518 36157 ft 439 kts 285°
2026-05-07 08:25 41.98965 33.49561 36140 ft 439 kts 285°
2026-05-07 08:26 42.01215 33.37680 36148 ft 436 kts 285°
2026-05-07 08:26 42.02720 33.29787 36153 ft 435 kts 285°
2026-05-07 08:27 42.04218 33.21899 36153 ft 435 kts 285°
2026-05-07 08:27 42.05710 33.14006 36152 ft 435 kts 285°
2026-05-07 08:28 42.07197 33.06106 36153 ft 435 kts 285°
2026-05-07 08:28 42.08768 32.98307 36154 ft 435 kts 287°
2026-05-07 08:29 42.10403 32.90471 36160 ft 434 kts 287°
2026-05-07 08:29 42.12018 32.82636 36148 ft 434 kts 286°
2026-05-07 08:30 42.13612 32.74793 36159 ft 434 kts 286°
2026-05-07 08:30 42.15196 32.66946 36159 ft 434 kts 286°
2026-05-07 08:31 42.16775 32.59099 36159 ft 434 kts 286°
2026-05-07 08:31 42.18344 32.51256 36159 ft 434 kts 286°
2026-05-07 08:32 42.19910 32.43393 36156 ft 434 kts 286°
2026-05-07 08:32 42.21468 32.35540 36156 ft 434 kts 286°
2026-05-07 08:33 42.23021 32.27682 36159 ft 434 kts 286°
2026-05-07 08:33 42.24571 32.19817 36159 ft 434 kts 286°
2026-05-07 08:34 42.26109 32.11952 36162 ft 433 kts 285°
2026-05-07 08:34 42.27645 32.04082 36162 ft 433 kts 286°
2026-05-07 08:35 42.29177 31.96233 36159 ft 433 kts 285°
2026-05-07 08:35 42.30709 31.88358 36159 ft 433 kts 285°
2026-05-07 08:36 42.32230 31.80498 36158 ft 431 kts 285°
2026-05-07 08:36 42.33739 31.72665 36156 ft 430 kts 286°
2026-05-07 08:37 42.35230 31.64899 36159 ft 429 kts 286°
2026-05-07 08:37 42.36722 31.57100 36159 ft 428 kts 285°
2026-05-07 08:38 42.38208 31.49300 36155 ft 428 kts 286°
2026-05-07 08:38 42.39684 31.41518 36159 ft 427 kts 286°
2026-05-07 08:39 42.41157 31.33726 36163 ft 427 kts 285°
2026-05-07 08:39 42.42623 31.25941 36160 ft 427 kts 285°
2026-05-07 08:40 42.44082 31.18152 36154 ft 427 kts 286°
2026-05-07 08:40 42.45532 31.10382 36163 ft 425 kts 286°
2026-05-07 08:41 42.46976 31.02612 36155 ft 425 kts 285°
2026-05-07 08:41 42.48412 30.94839 36161 ft 425 kts 285°
2026-05-07 08:42 42.49841 30.87070 36148 ft 425 kts 285°
2026-05-07 08:42 42.51264 30.79305 36167 ft 424 kts 285°
2026-05-07 08:43 42.52669 30.71606 36165 ft 423 kts 285°
2026-05-07 08:43 42.54088 30.63805 36163 ft 423 kts 285°
2026-05-07 08:44 42.55492 30.56048 36165 ft 423 kts 285°
2026-05-07 08:44 42.56891 30.48288 36164 ft 423 kts 285°
2026-05-07 08:45 42.58273 30.40589 36165 ft 423 kts 285°
2026-05-07 08:45 42.59663 30.32838 36169 ft 422 kts 285°
2026-05-07 08:46 42.61852 30.25510 36169 ft 418 kts 302°
2026-05-07 08:46 42.65366 30.19293 36165 ft 414 kts 310°
2026-05-07 08:47 42.69179 30.13442 36168 ft 413 kts 311°
2026-05-07 08:47 42.73025 30.07636 36168 ft 413 kts 311°
2026-05-07 08:48 42.76853 30.01810 36168 ft 413 kts 311°
2026-05-07 08:48 42.80668 29.95964 36159 ft 413 kts 310°
2026-05-07 08:49 42.84479 29.90099 36167 ft 414 kts 310°
2026-05-07 08:49 42.88293 29.84217 36168 ft 414 kts 310°
2026-05-07 08:50 42.92105 29.78328 36181 ft 414 kts 310°
2026-05-07 08:50 42.95912 29.72436 36157 ft 414 kts 310°
2026-05-07 08:51 42.99722 29.66530 36171 ft 415 kts 310°
2026-05-07 08:51 43.03529 29.60614 36170 ft 415 kts 310°
2026-05-07 08:52 43.07335 29.54687 36175 ft 415 kts 310°
2026-05-07 08:52 43.11138 29.48754 36173 ft 415 kts 310°
2026-05-07 08:53 43.14911 29.42855 36169 ft 414 kts 310°
2026-05-07 08:53 43.18705 29.36910 36172 ft 414 kts 310°
2026-05-07 08:54 43.22497 29.30958 36175 ft 414 kts 310°
2026-05-07 08:54 43.26288 29.24995 36167 ft 415 kts 309°
2026-05-07 08:55 43.30083 29.19012 36182 ft 416 kts 310°
2026-05-07 08:55 43.33876 29.13020 36168 ft 416 kts 310°
2026-05-07 08:56 43.37668 29.07019 36171 ft 416 kts 309°
2026-05-07 08:56 43.41454 29.01014 36167 ft 416 kts 309°
2026-05-07 08:57 43.45246 28.94986 36162 ft 417 kts 309°
2026-05-07 08:57 43.49033 28.88954 36151 ft 417 kts 309°
2026-05-07 08:58 43.52819 28.82910 36159 ft 417 kts 309°
2026-05-07 08:58 43.56604 28.76857 36144 ft 417 kts 309°
2026-05-07 08:59 43.60385 28.70796 36152 ft 417 kts 309°
2026-05-07 08:59 43.64166 28.64723 36139 ft 417 kts 309°
2026-05-07 09:00 43.67945 28.58641 36140 ft 417 kts 309°
2026-05-07 09:00 43.71715 28.52551 36136 ft 417 kts 308°
2026-05-07 09:01 43.74365 28.46992 36121 ft 417 kts 297°
2026-05-07 09:01 43.77025 28.39842 36123 ft 419 kts 295°
2026-05-07 09:02 43.79594 28.32599 36113 ft 420 kts 295°
2026-05-07 09:02 43.82163 28.25336 36112 ft 420 kts 295°
2026-05-07 09:03 43.84737 28.18090 36120 ft 419 kts 295°
2026-05-07 09:03 43.87307 28.10857 36122 ft 418 kts 295°
2026-05-07 09:04 43.89871 28.03629 36124 ft 418 kts 295°
2026-05-07 09:04 43.92432 27.96385 36106 ft 418 kts 295°
2026-05-07 09:05 43.94981 27.89152 36114 ft 416 kts 295°
2026-05-07 09:05 43.97517 27.81942 36114 ft 415 kts 295°
2026-05-07 09:06 44.00044 27.74736 36088 ft 415 kts 295°
2026-05-07 09:06 44.02565 27.67530 36085 ft 415 kts 295°
2026-05-07 09:07 44.05079 27.60320 36090 ft 414 kts 295°
2026-05-07 09:07 44.07579 27.53134 36089 ft 412 kts 295°
2026-05-07 09:08 44.10073 27.45946 36086 ft 412 kts 295°
2026-05-07 09:08 44.12562 27.38755 36083 ft 412 kts 295°
2026-05-07 09:09 44.15027 27.31615 36082 ft 412 kts 294°
2026-05-07 09:09 44.17499 27.24433 36081 ft 411 kts 294°
2026-05-07 09:10 44.19960 27.17264 36081 ft 411 kts 294°
2026-05-07 09:10 44.22423 27.10072 36077 ft 411 kts 294°
2026-05-07 09:11 44.24878 27.02884 36071 ft 410 kts 294°
2026-05-07 09:11 44.27325 26.95701 36072 ft 409 kts 294°
2026-05-07 09:12 44.29759 26.88533 36075 ft 409 kts 294°
2026-05-07 09:12 44.32188 26.81364 36075 ft 409 kts 294°
2026-05-07 09:13 44.34614 26.74182 36072 ft 409 kts 294°
2026-05-07 09:13 44.37036 26.66996 36072 ft 408 kts 294°
2026-05-07 09:14 44.39449 26.59816 36071 ft 409 kts 294°
2026-05-07 09:14 44.41869 26.52596 36069 ft 410 kts 294°
2026-05-07 09:15 44.44287 26.45361 36069 ft 410 kts 294°
2026-05-07 09:15 44.46700 26.38124 36066 ft 410 kts 293°
2026-05-07 09:16 44.49099 26.30905 36064 ft 408 kts 293°
2026-05-07 09:16 44.51491 26.23690 36075 ft 408 kts 293°
2026-05-07 09:17 44.53877 26.16475 36074 ft 408 kts 293°
2026-05-07 09:17 44.56259 26.09249 36067 ft 408 kts 293°
2026-05-07 09:18 44.58631 26.02036 36075 ft 406 kts 292°
2026-05-07 09:18 44.60993 25.94833 36075 ft 406 kts 292°
2026-05-07 09:19 44.63347 25.87636 36073 ft 406 kts 292°
2026-05-07 09:19 44.65697 25.80431 36073 ft 406 kts 292°
2026-05-07 09:20 44.68046 25.73214 36071 ft 407 kts 292°
2026-05-07 09:20 44.70395 25.65970 36071 ft 407 kts 292°
2026-05-07 09:21 44.72738 25.58723 36070 ft 407 kts 292°
2026-05-07 09:21 44.75076 25.51476 36069 ft 407 kts 292°
2026-05-07 09:22 44.77413 25.44213 36064 ft 407 kts 291°
2026-05-07 09:22 44.79747 25.36936 36067 ft 409 kts 291°
2026-05-07 09:23 44.82083 25.29635 36067 ft 409 kts 291°
2026-05-07 09:23 44.84412 25.22331 36067 ft 409 kts 291°
2026-05-07 09:24 44.86741 25.15010 36067 ft 409 kts 291°
2026-05-07 09:24 44.89065 25.07689 36068 ft 410 kts 291°
2026-05-07 09:25 44.91389 25.00338 36065 ft 411 kts 291°
2026-05-07 09:25 44.93711 24.92974 36064 ft 411 kts 291°
2026-05-07 09:26 44.96027 24.85608 36060 ft 410 kts 291°
2026-05-07 09:26 44.98337 24.78243 36060 ft 411 kts 290°
2026-05-07 09:27 45.00636 24.70895 36055 ft 412 kts 290°
2026-05-07 09:28 45.04096 24.59792 36061 ft 412 kts 290°
2026-05-07 09:28 45.06398 24.52376 36061 ft 412 kts 290°
2026-05-07 09:29 45.08695 24.44958 36056 ft 412 kts 290°
2026-05-07 09:29 45.10994 24.37512 36059 ft 413 kts 290°
2026-05-07 09:30 45.13293 24.30041 36060 ft 413 kts 289°
2026-05-07 09:30 45.15583 24.22578 36062 ft 413 kts 289°
2026-05-07 09:31 45.17869 24.15107 36072 ft 413 kts 289°
2026-05-07 09:31 45.20157 24.07613 36070 ft 415 kts 289°
2026-05-07 09:32 45.22440 24.00100 36070 ft 415 kts 289°
2026-05-07 09:32 45.24720 23.92582 36072 ft 414 kts 289°
2026-05-07 09:33 45.26996 23.85059 36072 ft 415 kts 289°
2026-05-07 09:33 45.29269 23.77521 36084 ft 416 kts 289°
2026-05-07 09:34 45.31544 23.69950 36082 ft 417 kts 289°
2026-05-07 09:34 45.33814 23.62375 36071 ft 417 kts 289°
2026-05-07 09:35 45.36081 23.54790 36082 ft 417 kts 289°
2026-05-07 09:35 45.38342 23.47188 36083 ft 417 kts 289°
2026-05-07 09:36 45.40596 23.39604 36083 ft 416 kts 289°
2026-05-07 09:36 45.42846 23.32009 36084 ft 416 kts 288°
2026-05-07 09:37 45.45090 23.24410 36078 ft 416 kts 288°
2026-05-07 09:37 45.47329 23.16802 36062 ft 416 kts 288°
2026-05-07 09:38 45.49562 23.09193 36064 ft 416 kts 288°
2026-05-07 09:38 45.51773 23.01632 36063 ft 416 kts 288°
2026-05-07 09:39 45.54009 22.93966 36053 ft 416 kts 288°
2026-05-07 09:39 45.56224 22.86346 36056 ft 416 kts 288°
2026-05-07 09:40 45.58434 22.78725 36061 ft 416 kts 287°
2026-05-07 09:40 45.60637 22.71098 36056 ft 415 kts 287°
2026-05-07 09:41 45.62834 22.63470 36063 ft 415 kts 287°
2026-05-07 09:41 45.65026 22.55835 36052 ft 415 kts 287°
2026-05-07 09:42 45.67197 22.48252 36057 ft 415 kts 287°
2026-05-07 09:42 45.69379 22.40605 36057 ft 416 kts 287°
2026-05-07 09:43 45.71561 22.32934 36058 ft 416 kts 286°
2026-05-07 09:43 45.73738 22.25257 36058 ft 416 kts 286°
2026-05-07 09:44 45.75909 22.17577 36055 ft 416 kts 286°
2026-05-07 09:44 45.78078 22.09885 36058 ft 416 kts 286°
2026-05-07 09:45 45.80243 22.02177 36052 ft 417 kts 286°
2026-05-07 09:45 45.82400 21.94472 36050 ft 417 kts 286°
2026-05-07 09:46 45.84554 21.86754 36045 ft 417 kts 286°
2026-05-07 09:46 45.86340 21.80339 36047 ft 417 kts 286°
2026-05-07 09:47 45.88485 21.72611 36046 ft 417 kts 285°
2026-05-07 09:47 45.90628 21.64862 36050 ft 418 kts 285°
2026-05-07 09:48 45.92768 21.57100 36050 ft 418 kts 285°
2026-05-07 09:48 45.94901 21.49336 36062 ft 418 kts 285°
2026-05-07 09:49 45.97030 21.41566 36084 ft 418 kts 285°
2026-05-07 09:49 45.99152 21.33801 36065 ft 418 kts 285°
2026-05-07 09:50 46.01269 21.26022 36070 ft 418 kts 285°
2026-05-07 09:50 46.03381 21.18237 36064 ft 418 kts 285°
2026-05-07 09:51 46.05488 21.10442 36069 ft 417 kts 285°
2026-05-07 09:51 46.07591 21.02649 36055 ft 418 kts 284°
2026-05-07 09:52 46.09686 20.94847 36054 ft 418 kts 284°
2026-05-07 09:52 46.11779 20.87027 36045 ft 418 kts 284°
2026-05-07 09:53 46.13849 20.79267 36039 ft 418 kts 284°
2026-05-07 09:53 46.15930 20.71447 36042 ft 418 kts 284°
2026-05-07 09:54 46.17947 20.63596 36029 ft 417 kts 282°
2026-05-07 09:54 46.19865 20.55696 36030 ft 417 kts 282°
2026-05-07 09:55 46.21782 20.47783 36025 ft 417 kts 282°
2026-05-07 09:55 46.23709 20.39882 36026 ft 417 kts 282°
2026-05-07 09:56 46.25582 20.32208 36028 ft 418 kts 282°
2026-05-07 09:56 46.27514 20.24267 36023 ft 419 kts 282°
2026-05-07 09:57 46.29441 20.16314 36021 ft 419 kts 282°
2026-05-07 09:57 46.31360 20.08368 36018 ft 419 kts 282°
2026-05-07 09:58 46.33276 20.00403 36018 ft 419 kts 282°
2026-05-07 09:58 46.35185 19.92439 36019 ft 419 kts 282°
2026-05-07 09:59 46.37087 19.84472 36018 ft 419 kts 282°
2026-05-07 09:59 46.38985 19.76496 36018 ft 419 kts 282°
2026-05-07 10:00 46.40876 19.68524 36018 ft 418 kts 282°
2026-05-07 10:00 46.42761 19.60548 36022 ft 419 kts 281°
2026-05-07 10:01 46.44641 19.52558 36020 ft 419 kts 281°
2026-05-07 10:01 46.46503 19.44619 36018 ft 419 kts 281°
2026-05-07 10:02 46.48372 19.36618 36017 ft 419 kts 281°
2026-05-07 10:02 46.50235 19.28618 36018 ft 418 kts 281°
2026-05-07 10:03 46.52092 19.20617 36018 ft 418 kts 281°
2026-05-07 10:03 46.53942 19.12609 36018 ft 418 kts 281°
2026-05-07 10:04 46.55788 19.04592 36015 ft 418 kts 281°
2026-05-07 10:04 46.57628 18.96572 36015 ft 418 kts 281°
2026-05-07 10:05 46.59460 18.88556 36021 ft 418 kts 281°
2026-05-07 10:05 46.61288 18.80527 36013 ft 417 kts 280°
2026-05-07 10:06 46.63107 18.72510 36014 ft 417 kts 280°
2026-05-07 10:06 46.64920 18.64486 36012 ft 417 kts 280°
2026-05-07 10:07 46.66726 18.56465 36009 ft 417 kts 280°
2026-05-07 10:07 46.68528 18.48427 36007 ft 418 kts 280°
2026-05-07 10:08 46.70327 18.40378 36005 ft 418 kts 280°
2026-05-07 10:08 46.72123 18.32308 36009 ft 418 kts 280°
2026-05-07 10:09 46.73912 18.24239 36014 ft 418 kts 280°
2026-05-07 10:09 46.75696 18.16164 36033 ft 418 kts 280°
2026-05-07 10:10 46.77472 18.08095 36008 ft 419 kts 280°
2026-05-07 10:10 46.79235 18.00048 36007 ft 419 kts 280°
2026-05-07 10:11 46.81003 17.91951 36010 ft 419 kts 280°
2026-05-07 10:11 46.82735 17.83989 35998 ft 419 kts 279°
2026-05-07 10:12 46.84507 17.75811 36011 ft 418 kts 279°
2026-05-07 10:12 46.86253 17.67730 36004 ft 417 kts 279°
2026-05-07 10:13 46.87991 17.59642 36005 ft 417 kts 279°
2026-05-07 10:13 46.89720 17.51560 36000 ft 417 kts 279°
2026-05-07 10:14 46.91447 17.43463 36002 ft 417 kts 279°
2026-05-07 10:14 46.93166 17.35372 36003 ft 417 kts 279°
2026-05-07 10:15 46.94883 17.27251 36005 ft 418 kts 279°
2026-05-07 10:15 46.96594 17.19133 36001 ft 417 kts 278°
2026-05-07 10:16 46.98300 17.11009 35994 ft 417 kts 278°
2026-05-07 10:16 46.99999 17.02885 36014 ft 417 kts 278°
2026-05-07 10:17 47.01691 16.94765 35991 ft 417 kts 278°
2026-05-07 10:17 47.03379 16.86631 35978 ft 417 kts 278°
2026-05-07 10:18 47.05057 16.78505 35978 ft 416 kts 278°
2026-05-07 10:18 47.06720 16.70421 35975 ft 416 kts 278°
2026-05-07 10:19 47.08398 16.62233 35989 ft 417 kts 277°
2026-05-07 10:19 47.10058 16.54095 35975 ft 417 kts 277°
2026-05-07 10:20 47.11716 16.45883 35729 ft 433 kts 277°
2026-05-07 10:20 47.12571 16.41577 35486 ft 447 kts 277°
2026-05-07 10:20 47.13457 16.37125 35249 ft 459 kts 278°
2026-05-07 10:20 47.14579 16.32678 34996 ft 467 kts 283°
2026-05-07 10:21 47.15829 16.28276 34755 ft 465 kts 283°
2026-05-07 10:21 47.17105 16.23930 34514 ft 463 kts 284°
2026-05-07 10:21 47.18393 16.19602 34268 ft 461 kts 283°
2026-05-07 10:21 47.19675 16.15297 34038 ft 458 kts 283°
2026-05-07 10:22 47.20948 16.11010 33767 ft 456 kts 283°
2026-05-07 10:22 47.22203 16.06755 33500 ft 453 kts 283°
2026-05-07 10:22 47.23450 16.02506 33223 ft 451 kts 283°
2026-05-07 10:22 47.24687 15.98278 32961 ft 448 kts 283°
2026-05-07 10:23 47.25913 15.94075 32683 ft 446 kts 283°
2026-05-07 10:23 47.27132 15.89887 32463 ft 444 kts 284°
2026-05-07 10:23 47.28344 15.85723 32198 ft 441 kts 283°
2026-05-07 10:23 47.29546 15.81583 31941 ft 439 kts 283°
2026-05-07 10:24 47.30746 15.77441 31686 ft 438 kts 284°
2026-05-07 10:24 47.31937 15.73324 31426 ft 436 kts 283°
2026-05-07 10:24 47.33121 15.69222 31177 ft 435 kts 284°
2026-05-07 10:24 47.34302 15.65121 30912 ft 434 kts 284°
2026-05-07 10:25 47.35480 15.61029 30660 ft 433 kts 284°
2026-05-07 10:25 47.36651 15.56956 30415 ft 431 kts 284°
2026-05-07 10:25 47.37818 15.52894 30229 ft 430 kts 283°
2026-05-07 10:25 47.38987 15.48825 29970 ft 430 kts 283°
2026-05-07 10:26 47.40151 15.44758 29676 ft 430 kts 283°
2026-05-07 10:26 47.41310 15.40694 29398 ft 429 kts 283°
2026-05-07 10:26 47.42465 15.36641 29110 ft 427 kts 283°
2026-05-07 10:26 47.43616 15.32598 28828 ft 426 kts 283°
2026-05-07 10:27 47.44757 15.28578 28541 ft 424 kts 283°
2026-05-07 10:27 47.45893 15.24570 28204 ft 422 kts 282°
2026-05-07 10:27 47.47028 15.20578 27806 ft 420 kts 283°
2026-05-07 10:27 47.48160 15.16601 27468 ft 418 kts 282°
2026-05-07 10:28 47.49278 15.12651 27094 ft 416 kts 282°
2026-05-07 10:28 47.50387 15.08708 26739 ft 414 kts 282°
2026-05-07 10:28 47.51485 15.04793 26380 ft 412 kts 282°
2026-05-07 10:28 47.52568 15.00936 26058 ft 410 kts 282°
2026-05-07 10:29 47.53655 14.97054 25696 ft 407 kts 282°
2026-05-07 10:29 47.54735 14.93200 25342 ft 403 kts 282°
2026-05-07 10:29 47.55816 14.89340 25014 ft 401 kts 282°
2026-05-07 10:30 47.57918 14.81811 24351 ft 397 kts 282°
2026-05-07 10:30 47.58964 14.78018 24061 ft 397 kts 282°
2026-05-07 10:30 47.60006 14.74244 23720 ft 396 kts 282°
2026-05-07 10:30 47.61053 14.70460 23371 ft 396 kts 282°
2026-05-07 10:31 47.62095 14.66707 22988 ft 393 kts 283°
2026-05-07 10:31 47.63138 14.62974 22586 ft 390 kts 282°
2026-05-07 10:31 47.64160 14.59263 22228 ft 388 kts 282°
2026-05-07 10:31 47.65141 14.55555 21868 ft 384 kts 282°
2026-05-07 10:32 47.66083 14.51880 21487 ft 379 kts 282°
2026-05-07 10:32 47.67018 14.48231 21181 ft 378 kts 282°
2026-05-07 10:32 47.67948 14.44593 20809 ft 376 kts 282°
2026-05-07 10:32 47.68860 14.40972 20458 ft 373 kts 282°
2026-05-07 10:33 47.69725 14.37347 20087 ft 371 kts 282°
2026-05-07 10:33 47.70567 14.33726 19710 ft 370 kts 282°
2026-05-07 10:33 47.71387 14.30123 19335 ft 368 kts 282°
2026-05-07 10:33 47.72187 14.26527 18979 ft 366 kts 282°
2026-05-07 10:34 47.72967 14.22939 18631 ft 364 kts 282°
2026-05-07 10:34 47.73746 14.19374 18276 ft 362 kts 283°
2026-05-07 10:34 47.74265 14.17119 18020 ft 361 kts 284°
2026-05-07 10:34 47.75101 14.13507 17598 ft 360 kts 284°
2026-05-07 10:35 47.75908 14.10007 17178 ft 357 kts 284°
2026-05-07 10:35 47.76710 14.06524 16796 ft 356 kts 284°
2026-05-07 10:35 47.77505 14.03054 16408 ft 353 kts 284°
2026-05-07 10:35 47.78279 13.99603 16040 ft 352 kts 284°
2026-05-07 10:36 47.79037 13.96158 15649 ft 350 kts 284°
2026-05-07 10:36 47.79785 13.92724 15281 ft 348 kts 283°
2026-05-07 10:36 47.80528 13.89302 14904 ft 347 kts 283°
2026-05-07 10:36 47.81266 13.85899 14551 ft 345 kts 283°
2026-05-07 10:37 47.82002 13.82508 14186 ft 343 kts 284°
2026-05-07 10:37 47.82739 13.79144 13837 ft 341 kts 284°
2026-05-07 10:37 47.83496 13.75813 13426 ft 340 kts 285°
2026-05-07 10:37 47.84301 13.72504 13084 ft 337 kts 286°
2026-05-07 10:38 47.85093 13.69220 13000 ft 338 kts 285°
2026-05-07 10:38 47.85888 13.65932 13003 ft 337 kts 285°
2026-05-07 10:38 47.86693 13.62661 13010 ft 335 kts 286°
2026-05-07 10:38 47.87488 13.59391 13008 ft 336 kts 285°
2026-05-07 10:39 47.88293 13.56130 13007 ft 335 kts 285°
2026-05-07 10:39 47.89102 13.52875 13002 ft 335 kts 285°
2026-05-07 10:39 47.89930 13.49635 13003 ft 334 kts 285°
2026-05-07 10:39 47.90758 13.46406 13008 ft 334 kts 286°
2026-05-07 10:40 47.91566 13.43155 13002 ft 335 kts 285°
2026-05-07 10:40 47.92361 13.39888 13001 ft 336 kts 285°
2026-05-07 10:40 47.93171 13.36617 13005 ft 335 kts 286°
2026-05-07 10:40 47.93981 13.33361 13001 ft 335 kts 286°
2026-05-07 10:41 47.94768 13.30087 13005 ft 337 kts 285°
2026-05-07 10:41 47.95553 13.26785 13007 ft 338 kts 285°
2026-05-07 10:41 47.96345 13.23489 13002 ft 337 kts 285°
2026-05-07 10:41 47.97137 13.20223 13004 ft 335 kts 285°
2026-05-07 10:42 47.97939 13.16970 13005 ft 333 kts 286°
2026-05-07 10:42 47.98730 13.13708 13001 ft 334 kts 285°
2026-05-07 10:42 47.99521 13.10452 13002 ft 334 kts 285°
2026-05-07 10:42 48.00324 13.07206 13002 ft 333 kts 285°
2026-05-07 10:43 48.01121 13.03969 12995 ft 333 kts 285°
2026-05-07 10:43 48.01917 13.00728 12997 ft 332 kts 285°
2026-05-07 10:43 48.02877 12.97618 13002 ft 337 kts 295°
2026-05-07 10:43 48.04075 12.94599 13001 ft 338 kts 298°
2026-05-07 10:44 48.05385 12.91683 13000 ft 339 kts 301°
2026-05-07 10:44 48.06774 12.88838 12996 ft 339 kts 302°
2026-05-07 10:44 48.08190 12.86065 13002 ft 327 kts 302°
2026-05-07 10:44 48.09552 12.83462 12993 ft 308 kts 302°
2026-05-07 10:45 48.10840 12.81016 12991 ft 294 kts 302°
2026-05-07 10:45 48.12089 12.78623 12997 ft 291 kts 301°
2026-05-07 10:45 48.13326 12.76222 12995 ft 291 kts 301°
2026-05-07 10:45 48.14557 12.73813 12994 ft 291 kts 301°
2026-05-07 10:46 48.15780 12.71406 12950 ft 290 kts 301°
2026-05-07 10:46 48.17001 12.68997 12614 ft 290 kts 301°
2026-05-07 10:46 48.18219 12.66593 12133 ft 289 kts 301°
2026-05-07 10:46 48.19429 12.64207 11678 ft 287 kts 301°
2026-05-07 10:47 48.20633 12.61831 11225 ft 285 kts 301°
2026-05-07 10:47 48.21824 12.59481 10770 ft 282 kts 301°
2026-05-07 10:47 48.23006 12.57146 10337 ft 280 kts 301°
2026-05-07 10:47 48.24177 12.54831 9894 ft 278 kts 301°
2026-05-07 10:48 48.25341 12.52526 9401 ft 275 kts 301°
2026-05-07 10:48 48.26492 12.50246 8934 ft 273 kts 301°
2026-05-07 10:48 48.27634 12.47983 8476 ft 270 kts 301°
2026-05-07 10:48 48.28761 12.45751 8104 ft 267 kts 301°
2026-05-07 10:49 48.29863 12.43526 7767 ft 264 kts 298°
2026-05-07 10:49 48.30795 12.41185 7444 ft 260 kts 294°
2026-05-07 10:49 48.31662 12.38805 7122 ft 259 kts 293°
2026-05-07 10:49 48.32514 12.36433 6793 ft 257 kts 293°
2026-05-07 10:50 48.33361 12.34072 6490 ft 256 kts 293°
2026-05-07 10:50 48.34197 12.31731 6181 ft 253 kts 293°
2026-05-07 10:50 48.35024 12.29405 5934 ft 253 kts 293°
2026-05-07 10:50 48.35848 12.27072 5686 ft 252 kts 293°
2026-05-07 10:51 48.36665 12.24760 5489 ft 246 kts 293°
2026-05-07 10:51 48.37451 12.22551 5361 ft 233 kts 293°
2026-05-07 10:51 48.38193 12.20456 5222 ft 221 kts 293°
2026-05-07 10:51 48.38895 12.18465 5091 ft 209 kts 290°
2026-05-07 10:52 48.39196 12.16399 4971 ft 199 kts 269°
2026-05-07 10:52 48.39138 12.14363 4837 ft 192 kts 261°
2026-05-07 10:52 48.38984 12.12398 4697 ft 187 kts 261°
2026-05-07 10:52 48.38821 12.10505 4591 ft 178 kts 261°
2026-05-07 10:53 48.38672 12.08711 4443 ft 167 kts 261°
2026-05-07 10:53 48.38541 12.07041 4320 ft 155 kts 261°
2026-05-07 10:53 48.38427 12.05486 4183 ft 145 kts 262°
2026-05-07 10:53 48.38322 12.04000 4047 ft 142 kts 262°
2026-05-07 10:54 48.38220 12.02553 3993 ft 139 kts 263°
2026-05-07 10:54 48.38116 12.01105 3968 ft 139 kts 262°
2026-05-07 10:54 48.38018 11.99670 3834 ft 137 kts 262°
2026-05-07 10:54 48.37914 11.98242 3634 ft 138 kts 262°
2026-05-07 10:55 48.37801 11.96803 3454 ft 138 kts 262°
2026-05-07 10:55 48.37694 11.95419 3260 ft 128 kts 263°
2026-05-07 10:55 48.37589 11.94104 3031 ft 129 kts 262°
2026-05-07 10:55 48.37489 11.92750 2896 ft 130 kts 262°
2026-05-07 10:56 48.37379 11.91392 2777 ft 132 kts 262°
2026-05-07 10:56 48.37275 11.90016 2645 ft 134 kts 263°
2026-05-07 10:56 48.37165 11.88595 2470 ft 139 kts 263°
2026-05-07 10:56 48.37075 11.87137 2257 ft 139 kts 265°
2026-05-07 10:57 48.36972 11.85741 2022 ft 130 kts 261°
2026-05-07 10:57 48.36865 11.84393 1842 ft 128 kts 263°
2026-05-07 10:57 48.36763 11.83068 1651 ft 126 kts 263°
2026-05-07 10:57 48.36663 11.81803 1508 ft 116 kts 263°
2026-05-07 10:58 48.36580 11.80719 1476 ft 89 kts 263°
2026-05-07 10:58 48.36520 11.79926 1482 ft 65 kts 263°
2026-05-07 10:58 48.36471 11.79318 1492 ft 47 kts 263°
2026-05-07 10:58 48.36444 11.79063 1476 ft 20 kts 249°
2026-05-07 10:59 48.36381 11.78878 1476 ft 20 kts 237°
2026-05-07 10:59 48.36301 11.78708 1483 ft 19 kts 233°
2026-05-07 10:59 48.36291 11.78687 1476 ft 0 kts 233°
2026-05-07 11:00 48.36286 11.78677 1492 ft 5 kts 233°
2026-05-07 11:00 48.36243 11.78591 1476 ft 15 kts 233°
2026-05-07 11:01 48.36149 11.78479 1476 ft 19 kts 184°
2026-05-07 11:01 48.36061 11.78491 1485 ft 11 kts 164°
2026-05-07 11:01 48.36039 11.78610 1488 ft 16 kts 85°
2026-05-07 11:01 48.36054 11.78814 1482 ft 22 kts 83°
2026-05-07 11:02 48.36073 11.79050 1483 ft 21 kts 83°
2026-05-07 11:02 48.36086 11.79222 1476 ft 10 kts 83°
2026-05-07 11:02 48.36061 11.79314 1483 ft 11 kts 157°
2026-05-07 11:02 48.35984 11.79335 1484 ft 0 kts 172°
2026-05-07 11:03 48.35961 11.79340 1478 ft 14 kts 170°
2026-05-07 11:03 48.35839 11.79387 1481 ft 19 kts 173°
2026-05-07 11:03 48.35700 11.79412 1483 ft 20 kts 174°
2026-05-07 11:04 48.35563 11.79435 1478 ft 19 kts 173°
2026-05-07 11:04 48.35490 11.79447 1486 ft 7 kts 179°
2026-05-07 11:04 48.35465 11.79401 1479 ft 7 kts 253°
2026-05-07 11:04 48.35460 11.79359 1478 ft 0 kts 262°
2026-05-07 11:05 48.35458 11.79330 1479 ft 3 kts 263°
2026-05-07 11:05 48.35457 11.79321 1481 ft 2 kts 263°
2026-05-07 11:05 48.35457 11.79319 1482 ft 0 kts 263°
2026-05-07 11:05 48.35456 11.79315 1483 ft 0 kts 263°